MENDUMS POND: From 01/23/2019 00:00 to 03/26/2019 00:00

Date LAKE ELEVATION [FT] PRECIPITATION INCREMENT [IN] WATER TEMPERATURE [F] PRECIPITATION TOTAL [IN] AIR TEMPERATURE [F] RESERVOIR RELEASE [CFS]
03/24/2019 06:00 -- -- -- -- -- 0.0
03/24/2019 05:00 220.50 0.00 40.2 -- 29.8 0.0
03/24/2019 04:00 220.51 0.00 40.2 -- 30.0 0.0
03/24/2019 03:00 220.51 0.00 40.2 -- 30.9 0.0
03/24/2019 02:00 220.48 0.00 40.2 -- 31.8 0.0
03/24/2019 01:00 220.47 0.00 40.2 -- 32.4 0.0
03/24/2019 00:00 220.47 0.00 40.2 -- 32.4 0.0
03/23/2019 23:00 220.47 0.00 40.2 -- 32.7 0.0
03/23/2019 22:00 220.46 0.00 40.2 -- 33.3 0.0
03/23/2019 21:00 220.45 0.00 40.2 -- 34.3 0.0
03/23/2019 20:00 220.43 0.00 40.3 -- 36.0 0.0
03/23/2019 19:00 220.43 0.00 40.3 -- 37.7 0.0
03/23/2019 18:00 220.40 0.00 40.3 -- 40.7 0.0
03/23/2019 17:00 220.43 0.00 40.3 -- 40.5 0.0
03/23/2019 16:00 220.42 0.00 40.2 -- 39.6 0.0
03/23/2019 15:00 220.43 0.00 40.2 -- 40.8 0.0
03/23/2019 14:00 220.42 0.00 40.2 -- 39.8 0.0
03/23/2019 13:00 220.43 0.00 40.2 -- 38.9 0.0
03/23/2019 12:00 220.40 0.00 40.2 -- 38.9 0.0
03/23/2019 11:00 220.37 0.00 40.2 -- 37.4 0.0
03/23/2019 10:00 220.36 0.00 40.2 -- 36.7 0.0
03/23/2019 09:00 220.43 0.00 40.2 -- 34.4 0.0
03/23/2019 08:00 220.35 0.00 40.2 -- 35.1 0.0
03/23/2019 07:00 220.37 0.00 40.2 -- 35.6 0.0
03/23/2019 06:00 220.34 0.00 40.1 -- 35.8 0.0
03/23/2019 05:00 220.35 0.01 40.1 -- 34.8 0.0
03/23/2019 04:00 220.33 0.00 40.2 -- 35.0 0.0
03/23/2019 03:00 220.30 0.00 40.1 -- 35.6 0.0
03/23/2019 02:00 220.32 0.00 40.1 -- 35.3 0.0
03/23/2019 01:00 220.30 0.00 40.1 -- 35.3 0.0
03/23/2019 00:00 220.30 0.00 40.2 0.01 36.2 0.0
03/22/2019 23:00 220.28 0.00 40.2 -- 35.9 0.0
03/22/2019 22:00 220.27 0.00 40.2 -- 35.6 0.0
03/22/2019 21:00 220.27 0.00 40.2 -- 35.4 0.0
03/22/2019 20:00 220.26 0.00 40.2 -- 36.0 0.0
03/22/2019 19:00 220.25 0.00 40.2 -- 36.7 0.0
03/22/2019 18:00 220.25 0.00 40.2 -- 37.8 0.0
03/22/2019 17:00 220.23 0.00 40.2 -- 40.0 0.0
03/22/2019 16:00 220.22 0.01 40.2 -- 41.4 0.0
03/22/2019 15:00 220.19 0.00 40.2 -- 39.4 0.0
03/22/2019 14:00 220.20 0.00 40.2 -- 39.0 0.0
03/22/2019 13:00 220.18 0.00 40.2 -- 38.0 0.0
03/22/2019 12:00 220.20 0.00 40.2 -- 36.3 0.0
03/22/2019 11:00 220.20 0.01 40.2 -- 35.5 0.0
03/22/2019 10:00 220.17 0.12 40.2 -- 35.3 0.0
03/22/2019 09:00 220.17 0.06 40.2 -- 34.5 0.0
03/22/2019 08:00 220.15 0.04 40.2 -- 33.9 0.0
03/22/2019 07:00 220.15 0.03 40.2 -- 33.1 0.0
03/22/2019 06:00 220.13 0.00 40.2 -- 35.4 0.0
03/22/2019 05:00 220.12 0.00 40.2 -- 35.7 0.0
03/22/2019 04:00 220.11 0.00 40.2 -- 35.7 0.0
03/22/2019 03:00 220.11 0.00 40.2 -- 35.8 0.0
03/22/2019 02:00 220.11 0.00 40.1 -- 35.6 0.0
03/22/2019 01:00 220.09 0.00 40.1 -- 35.3 0.0
03/22/2019 00:00 220.08 0.00 40.2 0.27 36.1 0.0
03/21/2019 23:00 220.09 0.00 40.2 -- 34.9 0.0
03/21/2019 22:00 220.09 0.00 40.1 -- 35.6 0.0
03/21/2019 21:00 220.08 0.00 40.1 -- 36.6 0.0
03/21/2019 20:00 220.07 0.00 40.1 -- 37.5 0.0
03/21/2019 19:00 220.06 0.00 40.1 -- 39.5 0.0
03/21/2019 18:00 220.06 0.00 40.1 -- 42.2 0.0
03/21/2019 17:00 220.06 0.00 40.1 -- 45.1 0.0
03/21/2019 16:00 220.05 0.00 40.1 -- 44.7 0.0
03/21/2019 15:00 220.06 0.00 40.1 -- 47.1 0.0
03/21/2019 14:00 220.05 0.00 40.1 -- 46.0 0.0
03/21/2019 13:00 220.05 0.00 40.1 -- 48.8 0.0
03/21/2019 12:00 220.04 0.00 40.1 -- 47.0 0.0
03/21/2019 11:00 220.04 0.00 40.1 -- 45.1 0.0
03/21/2019 10:00 220.03 0.00 40.1 -- 40.9 0.0
03/21/2019 09:00 220.04 0.00 40.1 -- 30.6 0.0
03/21/2019 08:00 220.03 0.00 40.1 -- 26.1 0.0
03/21/2019 07:00 220.02 0.00 40.1 -- 24.3 0.0
03/21/2019 06:00 220.02 0.00 40.1 -- 25.2 0.0
03/21/2019 05:00 220.01 0.00 40.1 -- 25.5 0.0
03/21/2019 04:00 220.01 0.00 40.1 -- 25.6 0.0
03/21/2019 03:00 220.01 0.00 40.1 -- 26.4 0.0
03/21/2019 02:00 220.00 0.00 40.1 -- 27.0 0.0
03/21/2019 01:00 219.99 0.00 40.1 -- 26.9 0.0
03/21/2019 00:00 219.99 0.00 40.1 0.00 27.3 0.0
03/20/2019 23:00 219.99 0.00 40.1 -- 27.4 0.0
03/20/2019 22:00 219.98 0.00 40.1 -- 27.9 0.0
03/20/2019 21:00 219.98 0.00 40.1 -- 29.2 0.0
03/20/2019 20:00 219.98 0.00 40.1 -- 32.3 0.0
03/20/2019 19:00 219.97 0.00 40.1 -- 38.3 0.0
03/20/2019 18:00 219.97 0.00 40.1 -- 44.9 0.0
03/20/2019 17:00 219.96 0.00 40.1 -- 47.3 0.0
03/20/2019 16:00 219.96 0.00 40.1 -- 48.7 0.0
03/20/2019 15:00 219.96 0.00 40.1 -- 47.4 0.0
03/20/2019 14:00 219.95 0.00 40.1 -- 46.7 0.0
03/20/2019 13:00 219.95 0.00 40.1 -- 46.4 0.0
03/20/2019 12:00 219.94 0.00 40.1 -- 43.0 0.0
03/20/2019 11:00 219.94 0.00 40.1 -- 42.7 0.0
03/20/2019 10:00 219.93 0.00 40.1 -- 37.7 0.0
03/20/2019 09:00 219.94 0.00 40.1 -- 24.3 0.0
03/20/2019 08:00 219.93 0.00 40.1 -- 17.9 0.0
03/20/2019 07:00 219.93 0.00 40.1 -- 16.0 0.0
03/20/2019 06:00 219.92 0.00 40.1 -- 16.5 0.0
03/20/2019 05:00 219.92 0.00 40.1 -- 17.0 0.0
03/20/2019 04:00 219.91 0.00 40.1 -- 17.7 0.0
03/20/2019 03:00 219.91 0.00 40.1 -- 18.7 0.0
03/20/2019 02:00 219.91 0.00 40.2 -- 19.8 0.0
03/20/2019 01:00 219.90 0.00 40.2 -- 20.7 0.0
03/20/2019 00:00 219.90 0.00 40.2 0.00 22.0 0.0
03/19/2019 23:00 219.90 0.00 40.1 -- 23.8 0.0
03/19/2019 22:00 219.89 0.00 40.2 -- 24.9 0.0
03/19/2019 21:00 219.89 0.00 40.2 -- 27.1 0.0
03/19/2019 20:00 219.88 0.00 40.2 -- 31.3 0.0
03/19/2019 19:00 219.88 0.00 40.2 -- 35.8 0.0
03/19/2019 18:00 219.89 0.00 40.2 -- 40.6 0.0
03/19/2019 17:00 219.89 0.00 40.2 -- 40.8 0.0
03/19/2019 16:00 219.88 -- 40.2 -- 40.5 0.0
03/19/2019 15:00 219.86 -- 40.2 -- 40.2 0.0
03/19/2019 14:00 219.87 0.00 40.1 -- 39.7 0.0
03/19/2019 13:00 219.86 0.00 40.1 -- 39.0 0.0
03/19/2019 12:00 219.86 0.00 40.1 -- 38.1 0.0
03/19/2019 11:00 219.84 0.00 40.1 -- 35.4 0.0
03/19/2019 10:00 219.85 0.00 40.1 -- 31.8 0.0
03/19/2019 09:00 219.84 0.00 40.1 -- 27.3 0.0
03/19/2019 08:00 219.84 0.00 40.1 -- 20.3 0.0
03/19/2019 07:00 219.84 0.00 40.1 -- 19.1 0.0
03/19/2019 06:00 219.83 0.00 40.1 -- 18.5 0.0
03/19/2019 05:00 219.83 0.00 40.1 -- 18.6 0.0
03/19/2019 04:00 219.83 0.00 40.1 -- 19.5 0.0
03/19/2019 03:00 219.82 0.00 40.1 -- 20.3 0.0
03/19/2019 02:00 219.81 0.00 40.1 -- 21.8 0.0
03/19/2019 01:00 219.81 0.00 40.1 -- 23.5 0.0
03/19/2019 00:00 219.81 0.00 40.1 -- 22.3 0.0
03/18/2019 23:00 219.80 0.00 40.1 -- 23.1 0.0
03/18/2019 22:00 219.80 0.00 40.1 -- 24.7 0.0
03/18/2019 21:00 219.80 0.00 40.1 -- 26.3 0.0
03/18/2019 20:00 219.79 0.00 40.1 -- 27.7 0.0
03/18/2019 19:00 219.78 0.00 40.1 -- 34.7 0.0
03/18/2019 18:00 219.78 0.00 40.1 -- 38.2 0.0
03/18/2019 17:00 219.77 0.00 40.1 -- 38.3 0.0
03/18/2019 16:00 219.77 0.00 40.1 -- 38.1 0.0
03/18/2019 15:00 219.76 0.00 40.1 -- 37.7 0.0
03/18/2019 14:00 219.78 0.00 40.1 -- 35.9 0.0
03/18/2019 13:00 219.78 0.00 40.1 -- 34.0 0.0
03/18/2019 12:00 219.75 0.00 40.1 -- 33.0 0.0
03/18/2019 11:00 219.77 0.00 40.1 -- 31.2 0.0
03/18/2019 10:00 219.76 0.00 40.1 -- 28.8 0.0
03/18/2019 09:00 219.75 0.00 40.1 -- 26.4 0.0
03/18/2019 08:00 219.74 0.00 40.1 -- 19.9 0.0
03/18/2019 07:00 219.73 0.00 40.1 -- 18.4 0.0
03/18/2019 06:00 219.73 0.00 40.1 -- 19.2 0.0
03/18/2019 05:00 219.72 0.00 40.1 -- 18.6 0.0
03/18/2019 04:00 219.72 0.00 40.1 -- 19.6 0.0
03/18/2019 03:00 219.71 0.00 40.1 -- 20.5 0.0
03/18/2019 02:00 219.71 0.00 40.1 -- 22.9 0.0
03/18/2019 01:00 219.70 0.00 40.1 -- 25.9 0.0
03/18/2019 00:00 219.69 0.00 40.1 0.00 27.7 0.0
03/17/2019 23:00 219.70 0.00 40.1 -- 27.8 0.0
03/17/2019 22:00 219.69 0.00 40.1 -- 25.9 0.0
03/17/2019 21:00 219.68 0.00 40.1 -- 26.6 0.0
03/17/2019 20:00 219.67 0.00 40.1 -- 27.7 0.0
03/17/2019 19:00 219.67 0.00 40.1 -- 31.9 0.0
03/17/2019 18:00 219.66 0.00 40.1 -- 35.6 0.0
03/17/2019 17:00 219.66 0.00 40.1 -- 36.3 0.0
03/17/2019 16:00 219.67 0.00 40.1 -- 36.5 0.0
03/17/2019 15:00 219.64 0.00 40.1 -- 36.3 0.0
03/17/2019 14:00 219.63 0.00 40.1 -- 34.5 0.0
03/17/2019 13:00 219.63 0.00 40.1 -- 32.6 0.0
03/17/2019 12:00 219.61 0.00 40.1 -- 32.1 0.0
03/17/2019 11:00 219.62 0.00 40.1 -- 30.8 0.0
03/17/2019 10:00 219.61 0.00 40.1 -- 30.4 0.0
03/17/2019 09:00 219.60 0.00 40.1 -- 28.6 0.0
03/17/2019 08:00 219.61 0.00 40.1 -- 27.8 0.0
03/17/2019 07:00 219.60 0.00 40.1 -- 27.4 0.0
03/17/2019 06:00 219.58 0.00 40.1 -- 28.7 0.0
03/17/2019 05:00 219.58 0.00 40.1 -- 29.7 0.0
03/17/2019 04:00 219.59 0.00 40.1 -- 30.8 0.0
03/17/2019 03:00 219.57 0.00 40.1 -- 30.5 0.0
03/17/2019 02:00 219.56 0.00 40.1 -- 28.9 0.0
03/17/2019 01:00 219.56 0.00 40.1 -- 27.1 0.0
03/17/2019 00:00 219.54 0.00 40.1 0.00 31.2 0.0
03/16/2019 23:00 219.54 0.00 40.1 -- 31.9 0.0
03/16/2019 22:00 219.52 0.00 40.1 -- 33.4 0.0
03/16/2019 21:00 219.52 0.00 40.1 -- 34.6 0.0
03/16/2019 20:00 219.53 0.00 40.1 -- 35.9 0.0
03/16/2019 19:00 219.49 0.00 40.1 -- 37.7 0.0
03/16/2019 18:00 219.51 0.00 40.1 -- 38.9 0.0
03/16/2019 17:00 219.46 0.00 40.1 -- 41.5 0.0
03/16/2019 16:00 219.45 0.00 40.1 -- 42.1 0.0
03/16/2019 15:00 219.48 0.00 40.1 -- 43.0 0.0
03/16/2019 14:00 219.45 0.00 40.1 -- 44.7 0.0
03/16/2019 13:00 219.47 0.00 40.1 -- 45.8 0.0
03/16/2019 12:00 219.44 0.00 40.1 -- 47.3 0.0
03/16/2019 11:00 219.47 0.00 40.1 -- 47.1 0.0
03/16/2019 10:00 219.43 0.00 40.1 -- 44.9 0.0
03/16/2019 09:00 219.44 0.00 40.1 -- 44.6 0.0
03/16/2019 08:00 219.42 0.00 40.1 -- 41.9 0.0
03/16/2019 07:00 219.40 0.00 40.1 -- 42.7 0.0
03/16/2019 06:00 219.40 0.00 40.1 -- 43.8 0.0
03/16/2019 05:00 219.39 0.00 40.1 -- 44.5 0.0
03/16/2019 04:00 219.38 0.00 40.1 -- 44.2 0.0
03/16/2019 03:00 219.38 0.00 40.1 -- 46.0 0.0
03/16/2019 02:00 219.37 0.00 40.1 -- 45.5 0.0
03/16/2019 01:00 219.36 0.00 40.1 -- 37.1 0.0
03/16/2019 00:00 219.35 0.00 40.1 0.00 37.1 0.0
03/15/2019 23:00 219.33 0.00 40.1 -- 37.6 0.0
03/15/2019 22:00 219.34 0.00 40.1 -- 37.4 0.0
03/15/2019 21:00 219.33 0.00 40.1 -- 37.2 0.0
03/15/2019 20:00 219.32 0.00 40.1 -- 40.3 0.0
03/15/2019 19:00 219.32 0.00 40.1 -- 45.9 0.0
03/15/2019 18:00 219.31 0.00 40.1 -- 54.6 0.0
03/15/2019 17:00 219.32 0.00 40.1 -- 61.2 0.0
03/15/2019 16:00 219.30 0.00 40.1 -- 61.1 0.0
03/15/2019 15:00 219.29 0.00 40.1 -- 58.9 0.0
03/15/2019 14:00 219.29 0.00 40.1 -- 58.6 0.0
03/15/2019 13:00 219.27 0.00 40.1 -- 54.2 0.0
03/15/2019 12:00 219.27 0.00 40.1 -- 43.8 0.0
03/15/2019 11:00 219.29 0.00 40.1 -- 42.2 0.0
03/15/2019 10:00 219.26 0.00 40.1 -- 40.2 0.0
03/15/2019 09:00 219.28 0.04 40.1 -- 34.6 0.0
03/15/2019 08:00 219.26 0.00 40.1 -- 32.7 0.0
03/15/2019 07:00 219.26 0.00 40.1 -- 31.8 0.0
03/15/2019 06:00 219.24 0.00 40.1 -- 31.9 0.0
03/15/2019 05:00 219.25 0.00 40.1 -- 31.8 0.0
03/15/2019 04:00 219.25 0.00 40.1 -- 32.2 0.0
03/15/2019 03:00 219.25 0.00 40.1 -- 32.8 0.0
03/15/2019 02:00 219.24 0.00 40.1 -- 32.8 0.0
03/15/2019 01:00 219.24 0.00 40.1 -- 32.4 0.0
03/15/2019 00:00 219.23 0.00 40.1 0.04 31.3 0.0
03/14/2019 23:00 219.24 0.00 40.1 -- 30.8 0.0
03/14/2019 22:00 219.23 0.00 40.1 -- 32.0 0.0
03/14/2019 21:00 219.23 0.00 40.1 -- 33.4 0.0
03/14/2019 20:00 219.23 0.00 40.2 -- 35.2 0.0
03/14/2019 19:00 219.22 0.00 40.2 -- 39.2 0.0
03/14/2019 18:00 219.22 0.00 40.2 -- 40.6 0.0
03/14/2019 17:00 219.22 0.00 40.2 -- 42.4 0.0
03/14/2019 16:00 219.21 0.00 40.2 -- 45.6 0.0
03/14/2019 15:00 219.21 0.00 40.2 -- 47.0 0.0
03/14/2019 14:00 219.21 0.00 40.2 -- 47.3 0.0
03/14/2019 13:00 219.21 0.00 40.2 -- 43.6 0.0
03/14/2019 12:00 219.20 0.00 40.1 -- 42.9 0.0
03/14/2019 11:00 219.20 0.00 40.2 -- 40.2 0.0
03/14/2019 10:00 219.20 0.00 40.1 -- 36.7 0.0
03/14/2019 09:00 219.19 0.00 40.1 -- 33.9 0.0
03/14/2019 08:00 219.19 0.00 40.1 -- 32.1 0.0
03/14/2019 07:00 219.20 0.00 40.1 -- 30.3 0.0
03/14/2019 06:00 219.19 0.00 40.1 -- 28.1 0.0
03/14/2019 05:00 219.19 0.00 40.1 -- 29.6 0.0
03/14/2019 04:00 219.18 0.00 40.0 -- 31.5 0.0
03/14/2019 03:00 219.18 0.00 40.0 -- 31.6 0.0
03/14/2019 02:00 219.18 0.00 40.0 -- 31.8 0.0
03/14/2019 01:00 219.18 0.00 40.0 -- 32.1 0.0
03/14/2019 00:00 219.19 0.00 40.0 0.00 32.4 0.0
03/13/2019 23:00 219.16 0.00 40.0 -- 32.5 0.0
03/13/2019 22:00 219.16 0.00 40.0 -- 32.6 0.0
03/13/2019 21:00 219.17 0.00 40.0 -- 33.2 0.0
03/13/2019 20:00 219.16 0.00 40.0 -- 33.3 0.0
03/13/2019 19:00 219.17 0.00 40.1 -- 34.1 0.0
03/13/2019 18:00 219.16 0.00 40.1 -- 36.0 0.0
03/13/2019 17:00 219.15 0.00 40.1 -- 37.6 0.0
03/13/2019 16:00 219.16 0.00 40.1 -- 40.2 0.0
03/13/2019 15:00 219.15 0.00 40.1 -- 41.5 0.0
03/13/2019 14:00 219.15 0.00 40.1 -- 42.0 0.0
03/13/2019 13:00 219.15 0.00 40.1 -- 40.5 0.0
03/13/2019 12:00 219.15 0.00 40.1 -- 39.5 0.0
03/13/2019 11:00 219.14 0.00 40.1 -- 36.5 0.0
03/13/2019 10:00 219.15 0.00 40.1 -- 33.7 0.0
03/13/2019 09:00 219.14 0.00 40.1 -- 24.3 0.0
03/13/2019 08:00 219.14 0.00 40.1 -- 18.9 0.0
03/13/2019 07:00 219.14 0.00 40.1 -- 18.0 0.0
03/13/2019 06:00 219.13 0.00 40.1 -- 19.4 0.0
03/13/2019 05:00 219.13 0.00 40.1 -- 21.0 0.0
03/13/2019 04:00 219.13 0.00 40.1 -- 22.8 0.0
03/13/2019 03:00 219.12 0.00 40.1 -- 24.9 0.0
03/13/2019 02:00 219.12 0.00 40.1 -- 26.9 0.0
03/13/2019 01:00 219.12 0.00 40.1 -- 28.6 0.0
03/13/2019 00:00 219.11 0.00 40.1 0.00 29.5 0.0
03/12/2019 23:00 219.11 0.00 40.1 -- 30.6 0.0
03/12/2019 22:00 219.11 0.00 40.0 -- 31.5 0.0
03/12/2019 21:00 219.11 0.00 40.0 -- 32.4 0.0
03/12/2019 20:00 219.11 0.00 40.0 -- 33.5 0.0
03/12/2019 19:00 219.11 0.00 40.0 -- 35.7 0.0
03/12/2019 18:00 219.12 0.00 40.0 -- 38.5 0.0
03/12/2019 17:00 219.09 0.00 40.0 -- 40.2 0.0
03/12/2019 16:00 219.08 0.00 40.1 -- 42.0 0.0
03/12/2019 15:00 219.10 0.00 40.0 -- 41.0 0.0
03/12/2019 14:00 219.10 0.00 40.0 -- 40.5 0.0
03/12/2019 13:00 219.07 0.00 40.1 -- 39.3 0.0
03/12/2019 12:00 219.07 0.00 40.0 -- 37.6 0.0
03/12/2019 11:00 219.14 0.00 40.0 -- 35.7 0.0
03/12/2019 10:00 219.08 0.00 40.1 -- 34.9 0.0
03/12/2019 09:00 219.07 0.00 40.0 -- 32.2 0.0
03/12/2019 08:00 219.07 0.00 40.1 -- 31.1 0.0
03/12/2019 07:00 219.06 0.00 40.0 -- 30.8 0.0
03/12/2019 06:00 219.08 0.00 40.0 -- 31.1 0.0
03/12/2019 05:00 219.07 0.00 40.0 -- 32.2 0.0
03/12/2019 04:00 219.07 0.00 40.0 -- 32.4 0.0
03/12/2019 03:00 219.06 0.00 40.0 -- 33.4 0.0
03/12/2019 02:00 219.06 0.00 40.0 -- 33.7 0.0
03/12/2019 01:00 219.06 0.00 40.0 -- 32.8 0.0
03/12/2019 00:00 219.04 0.00 40.0 0.00 33.4 0.0
03/11/2019 23:00 219.05 0.00 40.1 -- 35.0 0.0
03/11/2019 22:00 219.04 0.00 40.1 -- 36.2 0.0
03/11/2019 21:00 219.04 0.00 40.1 -- 37.3 0.0
03/11/2019 20:00 219.05 0.00 40.1 -- 38.2 0.0
03/11/2019 19:00 219.04 0.00 40.1 -- 39.3 0.0
03/11/2019 18:00 219.02 0.01 40.1 -- 41.3 0.0
03/11/2019 17:00 219.04 0.02 40.1 -- 44.0 0.0
03/11/2019 16:00 219.03 0.04 40.1 -- 43.8 0.0
03/11/2019 15:00 219.03 0.04 40.1 -- 45.8 0.0
03/11/2019 14:00 219.04 0.04 40.1 -- 43.9 0.0
03/11/2019 13:00 219.01 0.07 40.1 -- 43.2 0.0
03/11/2019 12:00 219.00 0.11 40.1 -- 42.4 0.0
03/11/2019 11:00 219.02 0.14 40.1 -- 43.4 0.0
03/11/2019 10:00 219.01 0.01 40.1 -- 38.6 0.0
03/11/2019 09:00 219.00 0.00 40.1 -- 33.6 0.0
03/11/2019 08:00 219.00 0.00 40.1 -- 31.6 0.0
03/11/2019 07:00 219.00 0.00 40.1 -- 29.9 0.0
03/11/2019 06:00 219.00 0.00 40.1 -- 31.4 0.0
03/11/2019 05:00 219.00 0.01 40.1 -- 31.4 0.0
03/11/2019 04:00 219.00 0.00 40.1 -- 31.7 0.0
03/11/2019 03:00 218.99 0.00 40.1 -- 30.6 0.0
03/11/2019 02:00 218.98 0.01 40.0 -- 32.7 0.0
03/11/2019 01:00 218.98 0.01 40.1 -- 32.6 0.0
03/11/2019 00:00 218.99 0.02 40.0 0.51 33.5 0.0
03/10/2019 23:00 218.98 0.03 40.0 -- 33.5 0.0
03/10/2019 22:00 218.97 0.03 40.0 -- 34.0 0.0
03/10/2019 21:00 218.98 0.03 40.0 -- 34.0 0.0
03/10/2019 20:00 218.98 0.05 40.0 -- 32.7 0.0
03/10/2019 19:00 218.97 0.06 40.0 -- 32.9 0.0
03/10/2019 18:00 218.96 0.00 40.0 -- 33.0 0.0
03/10/2019 17:00 218.96 0.00 40.0 -- 32.8 0.0
03/10/2019 16:00 218.95 0.00 40.0 -- 32.8 0.0
03/10/2019 15:00 218.94 0.00 40.0 -- 32.4 0.0
03/10/2019 14:00 218.93 0.00 40.0 -- 32.8 0.0
03/10/2019 13:00 218.93 0.00 40.0 -- 31.1 0.0
03/10/2019 12:00 218.92 0.00 40.0 -- 30.4 0.0
03/10/2019 11:00 218.91 0.00 40.0 -- 29.3 0.0
03/10/2019 10:00 218.89 0.00 40.1 -- 29.4 0.0
03/10/2019 09:00 218.90 0.00 40.1 -- 30.7 0.0
03/10/2019 08:00 218.89 0.00 40.1 -- 25.9 0.0
03/10/2019 07:00 218.89 0.00 40.1 -- 25.1 0.0
03/10/2019 06:00 218.89 0.00 40.1 -- 22.6 0.0
03/10/2019 05:00 218.88 0.00 40.1 -- 21.9 0.0
03/10/2019 04:00 218.88 0.00 40.1 -- 21.3 0.0
03/10/2019 03:00 218.87 0.00 40.0 -- 19.1 0.0
03/10/2019 02:00 218.87 0.00 40.1 -- 19.0 0.0
03/10/2019 01:00 218.87 0.00 40.1 -- 19.0 0.0
03/10/2019 00:00 218.89 0.00 40.0 0.22 16.8 0.0
03/09/2019 23:00 218.88 0.00 40.0 -- 18.8 0.0
03/09/2019 22:00 218.88 0.00 40.0 -- 21.0 0.0
03/09/2019 21:00 218.86 0.00 40.0 -- 22.6 0.0
03/09/2019 20:00 218.87 0.00 40.0 -- 25.4 0.0
03/09/2019 19:00 218.87 0.00 40.0 -- 26.6 0.0
03/09/2019 18:00 218.87 0.00 40.0 -- 31.7 0.0
03/09/2019 17:00 218.86 0.01 40.0 -- 40.2 0.0
03/09/2019 16:00 218.87 0.01 40.0 -- 44.0 0.0
03/09/2019 15:00 218.87 0.01 40.0 -- 44.2 0.0
03/09/2019 14:00 218.86 0.01 40.0 -- 43.5 0.0
03/09/2019 13:00 218.86 0.01 40.0 -- 42.4 0.0
03/09/2019 12:00 218.86 0.00 39.9 -- 42.9 0.0
03/09/2019 11:00 218.84 0.00 39.9 -- 40.7 0.0
03/09/2019 10:00 218.86 0.00 39.9 -- 36.6 0.0
03/09/2019 09:00 218.87 0.00 39.9 -- 33.3 0.0
03/09/2019 08:00 218.85 0.00 39.9 -- 16.6 0.0
03/09/2019 07:00 218.85 0.00 39.9 -- 7.1 0.0
03/09/2019 06:00 218.85 0.00 39.9 -- 6.6 0.0
03/09/2019 05:00 218.85 0.00 39.8 -- 8.4 0.0
03/09/2019 04:00 218.84 0.00 39.8 -- 7.8 0.0
03/09/2019 03:00 218.84 0.00 39.8 -- 11.1 0.0
03/09/2019 02:00 218.85 0.00 39.8 -- 13.2 0.0
03/09/2019 01:00 218.84 0.00 39.8 -- 15.4 0.0
03/09/2019 00:00 218.84 0.00 39.9 0.05 17.4 0.0
03/08/2019 23:00 218.84 0.00 39.9 -- 18.6 0.0
03/08/2019 22:00 218.83 0.00 39.9 -- 20.8 0.0
03/08/2019 21:00 218.83 0.00 39.8 -- 22.9 0.0
03/08/2019 20:00 218.83 0.00 39.8 -- 25.5 0.0
03/08/2019 19:00 218.83 0.00 39.8 -- 25.4 0.0
03/08/2019 18:00 218.83 0.00 39.8 -- 28.0 0.0
03/08/2019 17:00 218.82 0.00 39.9 -- 33.6 0.0
03/08/2019 16:00 218.84 0.00 39.8 -- 37.6 0.0
03/08/2019 15:00 218.83 0.00 39.8 -- 35.7 0.0
03/08/2019 14:00 218.80 0.00 39.8 -- 34.5 0.0
03/08/2019 13:00 218.81 0.00 39.8 -- 34.2 0.0
03/08/2019 12:00 218.82 0.00 39.8 -- 30.5 0.0
03/08/2019 11:00 218.82 0.00 39.8 -- 30.4 0.0
03/08/2019 10:00 218.81 0.00 39.8 -- 24.8 0.0
03/08/2019 09:00 218.80 0.00 39.9 -- 21.0 0.0
03/08/2019 08:00 218.81 0.00 39.9 -- 9.3 0.0
03/08/2019 07:00 218.81 0.00 39.8 -- 2.5 0.0
03/08/2019 06:00 218.81 0.00 39.8 -- 1.3 0.0
03/08/2019 05:00 218.80 0.00 39.8 -- 1.8 0.0
03/08/2019 04:00 218.80 0.00 39.8 -- 0.7 0.0
03/08/2019 03:00 218.80 0.00 39.8 -- 3.9 0.0
03/08/2019 02:00 218.80 0.00 39.9 -- 4.7 0.0
03/08/2019 01:00 218.80 0.00 39.9 -- 7.0 0.0
03/08/2019 00:00 218.80 0.00 39.9 0.00 9.3 0.0
03/07/2019 23:00 218.79 0.00 39.9 -- 11.9 0.0
03/07/2019 22:00 218.80 0.00 39.9 -- 16.7 0.0
03/07/2019 21:00 218.80 0.00 39.9 -- 18.3 0.0
03/07/2019 20:00 218.78 0.00 39.9 -- 20.3 0.0
03/07/2019 19:00 218.79 0.00 39.9 -- 18.8 0.0
03/07/2019 18:00 218.78 0.00 39.9 -- 21.3 0.0
03/07/2019 17:00 218.78 0.00 39.9 -- 23.4 0.0
03/07/2019 16:00 218.77 0.00 39.9 -- 25.9 0.0
03/07/2019 15:00 218.76 0.00 40.0 -- 25.1 0.0
03/07/2019 14:00 218.78 0.00 40.0 -- 23.7 0.0
03/07/2019 13:00 218.76 0.00 40.0 -- 25.1 0.0
03/07/2019 12:00 218.75 0.00 40.0 -- 23.4 0.0
03/07/2019 11:00 218.77 0.00 40.0 -- 19.6 0.0
03/07/2019 10:00 218.76 0.00 40.0 -- 16.7 0.0
03/07/2019 09:00 218.76 0.00 40.0 -- 15.0 0.0
03/07/2019 08:00 218.77 0.00 40.0 -- 9.4 0.0
03/07/2019 07:00 218.77 0.00 40.0 -- -0.7 0.0
03/07/2019 06:00 218.76 0.00 40.0 -- -3.2 0.0
03/07/2019 05:00 218.76 0.00 40.0 -- -4.9 0.0
03/07/2019 04:00 218.76 0.00 40.0 -- -3.8 0.0
03/07/2019 03:00 218.76 0.00 40.0 -- -2.7 0.0
03/07/2019 02:00 218.76 0.00 40.0 -- -0.2 0.0
03/07/2019 01:00 218.76 0.00 40.0 -- 2.0 0.0
03/07/2019 00:00 218.75 0.00 40.0 0.00 4.0 0.0
03/06/2019 23:00 218.75 0.00 40.0 -- 5.2 0.0
03/06/2019 22:00 218.75 0.00 40.0 -- 5.0 0.0
03/06/2019 21:00 218.75 0.00 40.0 -- 8.3 0.0
03/06/2019 20:00 218.75 0.00 40.0 -- 12.6 0.0
03/06/2019 19:00 218.74 0.00 40.0 -- 14.4 0.0
03/06/2019 18:00 218.73 0.00 40.0 -- 17.4 0.0
03/06/2019 17:00 218.76 0.00 40.0 -- 19.7 0.0
03/06/2019 16:00 218.72 0.00 40.0 -- 22.4 0.0
03/06/2019 15:00 218.75 0.00 40.0 -- 21.8 0.0
03/06/2019 14:00 218.76 0.00 40.0 -- 23.2 0.0
03/06/2019 13:00 218.69 0.00 40.0 -- 24.1 0.0
03/06/2019 12:00 218.73 0.00 40.0 -- 22.5 0.0
03/06/2019 11:00 218.77 0.00 40.0 -- 21.4 0.0
03/06/2019 10:00 218.73 0.01 40.0 -- 18.9 0.0
03/06/2019 09:00 218.70 0.00 40.0 -- 17.4 12.5
03/06/2019 08:00 218.72 0.00 40.0 -- 14.2 13.0
03/06/2019 07:00 218.72 0.00 40.0 -- 11.2 13.0
03/06/2019 06:00 218.72 0.00 40.0 -- 9.7 13.0
03/06/2019 05:00 218.73 0.00 40.0 -- 12.0 13.0
03/06/2019 04:00 218.73 0.00 40.0 -- 12.9 13.0
03/06/2019 03:00 218.73 0.00 40.0 -- 13.9 13.0
03/06/2019 02:00 218.72 0.00 40.0 -- 14.5 13.0
03/06/2019 01:00 218.73 0.00 40.0 -- 13.8 13.0
03/06/2019 00:00 218.73 0.00 40.0 0.01 14.4 13.0
03/05/2019 23:00 218.74 0.00 40.0 -- 16.2 13.0
03/05/2019 22:00 218.74 0.00 40.0 -- 12.7 13.0
03/05/2019 21:00 218.74 0.00 40.0 -- 12.9 13.0
03/05/2019 20:00 218.74 0.00 40.0 -- 15.0 13.0
03/05/2019 19:00 218.74 0.00 40.0 -- 19.2 13.0
03/05/2019 18:00 218.74 0.00 40.0 -- 24.5 13.0
03/05/2019 17:00 218.74 0.00 40.0 -- 27.0 13.0
03/05/2019 16:00 218.75 0.00 40.0 -- 29.9 13.0
03/05/2019 15:00 218.74 0.00 40.0 -- 29.0 13.0
03/05/2019 14:00 218.73 0.00 40.0 -- 29.2 13.0
03/05/2019 13:00 218.75 0.00 40.0 -- 28.1 13.0
03/05/2019 12:00 218.74 0.00 40.0 -- 26.2 13.0
03/05/2019 11:00 218.75 0.00 40.0 -- 27.0 13.0
03/05/2019 10:00 218.75 0.00 40.0 -- 22.5 13.0
03/05/2019 09:00 218.75 0.00 40.0 -- 20.1 13.0
03/05/2019 08:00 218.75 0.00 40.0 -- 15.6 13.0
03/05/2019 07:00 218.75 0.00 40.0 -- 13.1 13.0
03/05/2019 06:00 218.76 0.00 40.0 -- 13.5 13.0
03/05/2019 05:00 218.76 0.00 40.0 -- 14.2 13.0
03/05/2019 04:00 218.76 0.00 40.0 -- 15.9 13.0
03/05/2019 03:00 218.76 0.00 40.0 -- 17.1 13.0
03/05/2019 02:00 218.76 0.00 39.9 -- 17.4 13.0
03/05/2019 01:00 218.76 0.00 39.9 -- 18.4 13.0
03/05/2019 00:00 218.77 0.00 39.9 0.00 20.6 13.0
03/04/2019 23:00 218.77 0.00 40.0 -- 23.3 13.0
03/04/2019 22:00 218.77 0.00 39.9 -- 27.2 13.0
03/04/2019 21:00 218.77 0.00 39.9 -- 26.7 13.0
03/04/2019 20:00 218.77 0.00 40.0 -- 26.6 13.0
03/04/2019 19:00 218.77 0.00 40.0 -- 28.8 13.0
03/04/2019 18:00 218.77 0.01 40.0 -- 30.2 13.0
03/04/2019 17:00 218.77 0.01 40.0 -- 32.5 13.5
03/04/2019 16:00 218.76 0.03 40.0 -- 35.4 13.3
03/04/2019 15:00 218.78 0.07 40.0 -- 35.1 13.0
03/04/2019 14:00 218.78 0.01 40.0 -- 35.0 13.3
03/04/2019 13:00 218.78 0.00 40.0 -- 36.7 13.0
03/04/2019 12:00 218.77 0.00 40.0 -- 36.5 13.3
03/04/2019 11:00 218.77 0.01 40.0 -- 35.6 13.5
03/04/2019 10:00 218.78 0.00 40.0 -- 33.0 13.3
03/04/2019 09:00 218.78 0.00 40.0 -- 32.2 13.3
03/04/2019 08:00 218.78 0.00 39.9 -- 31.5 13.3
03/04/2019 07:00 218.78 0.00 39.9 -- 30.6 13.3
03/04/2019 06:00 218.78 0.00 40.0 -- 30.4 13.0
03/04/2019 05:00 218.77 0.00 40.0 -- 30.4 13.0
03/04/2019 04:00 218.77 0.00 39.9 -- 30.3 13.0
03/04/2019 03:00 218.76 0.00 40.0 -- 30.4 13.0
03/04/2019 02:00 218.76 0.00 40.0 -- 30.4 13.0
03/04/2019 01:00 218.76 0.00 40.0 -- 30.6 13.0
03/04/2019 00:00 218.75 0.00 40.0 0.14 31.1 13.0
03/03/2019 23:00 218.75 0.00 39.9 -- 31.4 13.0
03/03/2019 22:00 218.75 0.00 39.9 -- 30.9 13.0
03/03/2019 21:00 218.75 0.00 39.9 -- 32.4 13.0
03/03/2019 20:00 218.75 0.00 39.9 -- 32.8 13.0
03/03/2019 19:00 218.75 0.00 40.0 -- 33.8 13.0
03/03/2019 18:00 218.75 0.00 40.0 -- 35.2 13.0
03/03/2019 17:00 218.75 0.00 40.0 -- 37.6 13.0
03/03/2019 16:00 218.75 0.00 40.0 -- 41.7 13.0
03/03/2019 15:00 218.76 0.00 40.0 -- 41.5 13.0
03/03/2019 14:00 218.75 0.00 40.0 -- 42.6 13.0
03/03/2019 13:00 218.75 0.00 40.0 -- 40.9 13.0
03/03/2019 12:00 218.75 0.00 40.0 -- 40.1 13.0
03/03/2019 11:00 218.76 0.00 40.0 -- 38.4 13.0
03/03/2019 10:00 218.76 0.00 40.0 -- 37.4 13.0
03/03/2019 09:00 218.76 0.00 40.0 -- 34.8 13.0
03/03/2019 08:00 218.77 0.00 40.0 -- 18.1 13.0
03/03/2019 07:00 218.77 0.00 40.0 -- 13.9 13.0
03/03/2019 06:00 218.76 0.00 40.0 -- 14.4 13.0
03/03/2019 05:00 218.76 0.00 40.0 -- 16.0 13.0
03/03/2019 04:00 218.77 0.00 40.0 -- 17.1 13.0
03/03/2019 03:00 218.77 0.00 40.0 -- 16.3 13.0
03/03/2019 02:00 218.77 0.00 40.0 -- 17.9 13.0
03/03/2019 01:00 218.77 0.00 39.9 -- 20.1 13.0
03/03/2019 00:00 218.77 0.00 39.9 0.00 22.9 13.0
03/02/2019 23:00 218.77 0.00 39.9 -- 24.7 13.0
03/02/2019 22:00 218.77 0.00 40.0 -- 26.9 13.0
03/02/2019 21:00 218.78 0.00 40.0 -- 27.6 13.0
03/02/2019 20:00 218.78 0.00 40.0 -- 28.6 13.0
03/02/2019 19:00 218.78 0.00 40.0 -- 29.3 13.0
03/02/2019 18:00 218.78 0.00 40.0 -- 29.1 13.5
03/02/2019 17:00 218.78 0.00 40.0 -- 30.4 13.3
03/02/2019 16:00 218.78 0.00 40.0 -- 30.6 13.0
03/02/2019 15:00 218.78 0.00 40.0 -- 29.6 13.8
03/02/2019 14:00 218.78 0.00 40.0 -- 28.3 13.3
03/02/2019 13:00 218.78 0.00 40.0 -- 29.1 13.8
03/02/2019 12:00 218.81 0.00 40.0 -- 30.0 13.8
03/02/2019 11:00 218.78 0.00 40.0 -- 30.2 13.5
03/02/2019 10:00 218.79 0.00 40.0 -- 29.5 14.0
03/02/2019 09:00 218.80 0.00 39.9 -- 28.2 14.0
03/02/2019 08:00 218.80 0.00 39.9 -- 26.7 14.0
03/02/2019 07:00 218.79 0.00 39.9 -- 25.6 14.0
03/02/2019 06:00 218.79 0.00 40.0 -- 23.0 14.0
03/02/2019 05:00 218.79 0.00 39.9 -- 20.5 14.0
03/02/2019 04:00 218.80 0.00 40.0 -- 17.7 14.0
03/02/2019 03:00 218.80 0.00 40.0 -- 18.2 14.0
03/02/2019 02:00 218.80 0.00 39.9 -- 20.2 14.0
03/02/2019 01:00 218.80 0.00 39.9 -- 20.7 14.0
03/02/2019 00:00 218.80 0.00 39.9 0.00 21.4 14.0
03/01/2019 23:00 218.80 0.00 39.9 -- 21.5 14.0
03/01/2019 22:00 218.80 0.00 39.9 -- 19.9 14.0
03/01/2019 21:00 218.80 0.00 39.9 -- 21.1 14.0
03/01/2019 20:00 218.81 0.00 39.9 -- 24.7 14.0
03/01/2019 19:00 218.81 0.00 39.9 -- 24.7 14.0
03/01/2019 18:00 218.81 0.00 39.9 -- 27.8 14.0
03/01/2019 17:00 218.81 0.00 39.9 -- 34.9 14.0
03/01/2019 16:00 218.81 0.00 40.0 -- 39.9 14.0
03/01/2019 15:00 218.81 0.00 40.0 -- 37.0 14.0
03/01/2019 14:00 218.81 0.00 40.0 -- 37.0 14.0
03/01/2019 13:00 218.81 0.00 39.9 -- 39.6 14.0
03/01/2019 12:00 218.82 0.00 39.9 -- 34.8 14.0
03/01/2019 11:00 218.81 0.00 39.9 -- 32.9 14.0
03/01/2019 10:00 218.82 0.00 39.9 -- 28.5 14.0
03/01/2019 09:00 218.82 0.00 39.9 -- 16.5 14.0
03/01/2019 08:00 218.82 0.00 40.0 -- 9.8 14.0
03/01/2019 07:00 218.83 0.00 39.9 -- 5.7 14.0
03/01/2019 06:00 218.82 0.00 40.0 -- 2.3 14.0
03/01/2019 05:00 218.82 0.00 40.0 -- 1.8 14.0
03/01/2019 04:00 218.82 0.00 40.0 -- 2.6 14.0
03/01/2019 03:00 218.83 0.00 40.0 -- 3.6 14.0
03/01/2019 02:00 218.83 0.00 40.0 -- 5.0 14.0
03/01/2019 01:00 218.83 0.00 40.0 -- 6.2 14.0
03/01/2019 00:00 218.83 0.00 40.0 0.00 7.4 14.0
02/28/2019 23:00 218.83 0.00 40.0 -- 9.5 14.0
02/28/2019 22:00 218.84 0.00 40.0 -- 11.4 14.0
02/28/2019 21:00 218.84 0.00 40.0 -- 12.8 14.0
02/28/2019 20:00 218.84 0.00 40.0 -- 16.3 14.0
02/28/2019 19:00 218.84 0.00 40.0 -- 17.6 14.0
02/28/2019 18:00 218.84 0.00 40.0 -- 24.2 14.3
02/28/2019 17:00 218.84 0.00 40.0 -- 27.5 14.8
02/28/2019 16:00 218.85 0.00 40.0 -- 31.9 14.5
02/28/2019 15:00 218.85 0.00 40.0 -- 29.7 14.5
02/28/2019 14:00 218.84 0.01 40.0 -- 29.3 14.3
02/28/2019 13:00 218.85 0.00 40.0 -- 26.9 14.5
02/28/2019 12:00 218.85 0.01 40.0 -- 26.5 15.0
02/28/2019 11:00 218.85 0.01 40.0 -- 22.1 15.0
02/28/2019 10:00 218.85 0.00 40.0 -- 18.5 15.0
02/28/2019 09:00 218.86 0.00 40.0 -- 14.9 15.0
02/28/2019 08:00 218.85 0.00 40.0 -- 12.8 15.0
02/28/2019 07:00 218.85 0.00 40.0 -- 11.9 15.0
02/28/2019 06:00 218.85 0.00 40.0 -- 11.8 15.0
02/28/2019 05:00 218.85 0.00 40.1 -- 12.0 15.0
02/28/2019 04:00 218.86 0.00 40.0 -- 12.0 15.0
02/28/2019 03:00 218.85 0.00 40.0 -- 12.1 15.0
02/28/2019 02:00 218.85 0.00 40.1 -- 12.2 --
02/28/2019 01:00 -- 0.00 40.0 -- 1.0 --
02/28/2019 00:00 218.86 0.00 40.0 0.03 12.3 15.0
02/27/2019 23:00 218.86 0.00 40.0 -- 12.6 15.0
02/27/2019 22:00 218.86 0.00 40.0 -- 13.4 15.0
02/27/2019 21:00 218.85 0.00 40.0 -- 14.0 15.0
02/27/2019 20:00 218.86 0.00 40.0 -- 14.6 15.0
02/27/2019 19:00 218.86 0.00 40.0 -- 15.4 15.0
02/27/2019 18:00 218.86 0.00 40.0 -- 15.9 15.0
02/27/2019 17:00 218.86 0.00 40.1 -- 16.9 15.0
02/27/2019 16:00 218.86 0.00 40.1 -- 17.0 15.0
02/27/2019 15:00 218.87 0.00 40.1 -- 16.5 15.0
02/27/2019 14:00 218.85 0.00 40.1 -- 17.2 15.0
02/27/2019 13:00 218.87 0.00 40.1 -- 15.9 15.0
02/27/2019 12:00 218.86 0.00 40.1 -- 13.2 15.0
02/27/2019 11:00 218.86 0.00 40.0 -- 12.3 15.0
02/27/2019 10:00 218.86 0.00 40.0 -- 11.3 15.0
02/27/2019 09:00 218.87 0.00 40.1 -- 7.8 15.0
02/27/2019 08:00 218.88 0.00 40.1 -- 5.3 15.0
02/27/2019 07:00 218.87 0.00 40.1 -- 4.3 15.0
02/27/2019 06:00 218.89 0.00 40.0 -- 4.4 15.0
02/27/2019 05:00 218.86 0.00 40.1 -- 5.3 15.0
02/27/2019 04:00 218.89 0.00 40.1 -- 6.3 15.0
02/27/2019 03:00 218.88 0.00 40.1 -- 7.0 15.0
02/27/2019 02:00 218.88 0.00 40.1 -- 7.9 15.0
02/27/2019 01:00 218.90 0.00 40.1 -- 8.7 14.8
02/27/2019 00:00 218.87 0.00 40.1 0.00 9.7 15.3
02/26/2019 23:00 218.85 0.00 40.0 -- 10.7 15.0
02/26/2019 22:00 218.89 0.00 40.0 -- 11.2 15.0
02/26/2019 21:00 218.88 0.00 40.0 -- 12.3 15.0
02/26/2019 20:00 218.87 0.00 40.0 -- 13.4 15.0
02/26/2019 19:00 218.88 0.00 40.0 -- 14.9 15.0
02/26/2019 18:00 218.88 0.00 40.0 -- 16.3 15.0
02/26/2019 17:00 218.89 0.00 40.0 -- 17.9 15.0
02/26/2019 16:00 218.85 0.00 40.0 -- 21.3 15.5
02/26/2019 15:00 218.88 0.00 40.0 -- 22.1 15.5
02/26/2019 14:00 218.85 0.00 40.0 -- 22.7 15.0
02/26/2019 13:00 218.91 0.00 40.0 -- 23.4 15.3
02/26/2019 12:00 218.83 0.00 40.0 -- 21.3 15.0
02/26/2019 11:00 218.91 0.00 40.0 -- 20.1 15.3
02/26/2019 10:00 218.86 0.00 40.0 -- 17.4 15.0
02/26/2019 09:00 218.90 0.00 40.0 -- 16.5 15.0
02/26/2019 08:00 218.89 0.00 40.0 -- 15.0 15.0
02/26/2019 07:00 218.92 0.00 40.0 -- 15.3 15.3
02/26/2019 06:00 218.92 0.00 40.0 -- 16.8 15.3
02/26/2019 05:00 218.91 0.00 40.0 -- 17.9 15.5
02/26/2019 04:00 218.90 0.00 40.0 -- 18.9 15.0
02/26/2019 03:00 218.91 0.00 40.0 -- 19.9 15.3
02/26/2019 02:00 218.87 0.00 40.0 -- 21.2 15.3
02/26/2019 01:00 218.90 0.00 40.0 -- 23.1 15.0
02/26/2019 00:00 218.86 0.00 40.0 0.00 24.9 15.0
02/25/2019 23:00 218.89 0.00 40.0 -- 25.7 15.3
02/25/2019 22:00 218.87 0.00 40.0 -- 26.5 14.8
02/25/2019 21:00 218.91 0.00 40.0 -- 26.9 15.5
02/25/2019 20:00 218.86 0.00 40.0 -- 27.3 15.3
02/25/2019 19:00 218.90 0.00 40.0 -- 28.7 15.3
02/25/2019 18:00 218.94 0.00 40.0 -- 29.6 15.3
02/25/2019 17:00 218.84 0.00 40.0 -- 31.0 14.8
02/25/2019 16:00 218.81 0.00 40.0 -- 30.8 15.3
02/25/2019 15:00 218.90 0.00 40.0 -- 31.0 15.0
02/25/2019 14:00 218.85 0.00 40.0 -- 31.6 15.3
02/25/2019 13:00 218.88 0.00 40.0 -- 30.8 14.5
02/25/2019 12:00 218.87 0.00 40.0 -- 31.9 14.8
02/25/2019 11:00 218.87 0.00 40.0 -- 33.0 15.3
02/25/2019 10:00 218.90 0.00 40.0 -- 33.7 14.8
02/25/2019 09:00 218.91 0.00 40.0 -- 33.8 15.0
02/25/2019 08:00 218.91 0.00 40.0 -- 33.4 15.3
02/25/2019 07:00 218.85 0.00 40.0 -- 32.4 15.3
02/25/2019 06:00 218.86 0.00 40.0 -- 33.5 15.0
02/25/2019 05:00 218.85 0.00 40.0 -- 34.0 15.0
02/25/2019 04:00 218.85 0.00 40.0 -- 35.1 15.0
02/25/2019 03:00 218.86 0.00 40.0 -- 35.0 15.0
02/25/2019 02:00 218.85 0.00 39.9 -- 33.5 15.0
02/25/2019 01:00 218.86 0.00 40.0 -- 34.4 14.8
02/25/2019 00:00 218.86 0.01 39.9 0.00 36.0 14.5
02/24/2019 23:00 218.84 0.00 40.0 -- 35.4 14.8
02/24/2019 22:00 218.85 0.00 40.0 -- 34.9 14.3
02/24/2019 21:00 218.85 0.01 40.0 -- 33.9 14.5
02/24/2019 20:00 218.85 0.00 40.0 -- 34.9 14.3
02/24/2019 19:00 218.83 0.01 40.0 -- 36.2 14.3
02/24/2019 18:00 218.83 0.03 40.0 -- 36.5 14.0
02/24/2019 17:00 218.83 0.05 40.0 -- 36.7 14.0
02/24/2019 16:00 218.83 0.09 40.0 -- 37.0 14.0
02/24/2019 15:00 218.82 0.08 40.0 -- 36.8 14.0
02/24/2019 14:00 218.80 0.10 40.0 -- 36.4 14.0
02/24/2019 13:00 218.80 0.14 40.0 -- 35.5 13.8
02/24/2019 12:00 218.79 0.06 40.0 -- 34.4 13.8
02/24/2019 11:00 218.79 0.00 40.0 -- 33.8 13.5
02/24/2019 10:00 218.78 0.03 39.9 -- 33.1 13.3
02/24/2019 09:00 218.78 0.00 39.9 -- 33.4 13.0
02/24/2019 08:00 218.77 0.00 39.9 -- 32.6 13.0
02/24/2019 07:00 218.77 0.00 39.9 -- 30.9 13.0
02/24/2019 06:00 218.78 0.00 39.9 -- 29.6 13.0
02/24/2019 05:00 218.78 0.00 39.9 -- 29.4 13.3
02/24/2019 04:00 218.78 0.00 40.0 -- 28.5 13.0
02/24/2019 03:00 218.77 0.00 40.0 -- 27.7 13.0
02/24/2019 02:00 218.78 0.00 40.0 -- 26.6 13.3
02/24/2019 01:00 218.79 0.00 40.0 -- 26.0 13.3
02/24/2019 00:00 218.78 0.00 40.0 0.61 25.6 13.0
02/23/2019 23:00 218.78 0.00 40.0 -- 24.6 13.5
02/23/2019 22:00 218.78 0.00 40.0 -- 24.0 13.8
02/23/2019 21:00 218.78 0.00 40.0 -- 24.4 14.0
02/23/2019 20:00 218.78 0.00 40.0 -- 25.4 13.3
02/23/2019 19:00 218.78 0.00 40.0 -- 26.6 14.0
02/23/2019 18:00 218.79 0.00 40.0 -- 29.5 14.0
02/23/2019 17:00 218.78 0.00 40.0 -- 35.7 14.0
02/23/2019 16:00 218.79 0.00 40.0 -- 39.2 14.0
02/23/2019 15:00 218.79 0.00 40.0 -- 40.4 14.0
02/23/2019 14:00 218.79 0.01 40.0 -- 41.1 14.0
02/23/2019 13:00 218.79 0.00 40.0 -- 40.5 14.0
02/23/2019 12:00 218.79 0.00 40.0 -- 37.2 14.0
02/23/2019 11:00 218.80 0.00 40.0 -- 35.9 14.0
02/23/2019 10:00 218.80 0.00 40.0 -- 36.5 14.0
02/23/2019 09:00 218.80 0.00 40.0 -- 29.8 14.0
02/23/2019 08:00 218.79 0.00 40.0 -- 20.9 14.0
02/23/2019 07:00 218.80 0.00 40.0 -- 17.1 14.0
02/23/2019 06:00 218.80 0.00 40.0 -- 17.1 14.0
02/23/2019 05:00 218.80 0.00 40.0 -- 17.8 14.0
02/23/2019 04:00 218.80 0.00 40.0 -- 19.5 14.0
02/23/2019 03:00 218.81 0.00 40.0 -- 21.6 14.0
02/23/2019 02:00 218.81 0.00 40.0 -- 23.1 14.0
02/23/2019 01:00 218.81 0.00 40.0 -- 23.8 14.0
02/23/2019 00:00 218.81 0.00 39.9 0.01 26.4 14.0
02/22/2019 23:00 218.80 0.00 39.9 -- 26.5 14.0
02/22/2019 22:00 218.80 0.00 39.9 -- 28.1 14.0
02/22/2019 21:00 218.82 0.00 40.0 -- 32.3 14.0
02/22/2019 20:00 218.81 0.00 40.0 -- 32.3 14.0
02/22/2019 19:00 218.82 0.00 40.0 -- 29.6 14.0
02/22/2019 18:00 218.81 0.00 40.0 -- 35.0 14.0
02/22/2019 17:00 218.81 0.00 40.0 -- 38.4 14.0
02/22/2019 16:00 218.83 0.01 40.0 -- 40.6 14.0
02/22/2019 15:00 218.83 0.01 40.0 -- 41.9 14.0
02/22/2019 14:00 218.81 0.01 40.0 -- 42.9 14.0
02/22/2019 13:00 218.84 0.00 40.0 -- 40.8 14.0
02/22/2019 12:00 218.83 0.00 40.0 -- 39.4 14.0
02/22/2019 11:00 218.82 0.00 40.0 -- 37.9 14.3
02/22/2019 10:00 218.84 0.00 40.0 -- 36.4 14.0
02/22/2019 09:00 218.83 0.00 40.0 -- 35.9 14.0
02/22/2019 08:00 218.83 0.00 40.0 -- 33.4 14.0
02/22/2019 07:00 218.83 0.00 40.0 -- 31.1 14.0
02/22/2019 06:00 218.82 0.00 40.0 -- 30.5 14.0
02/22/2019 05:00 218.82 0.00 40.0 -- 33.6 14.3
02/22/2019 04:00 218.86 0.00 40.0 -- 33.9 14.5
02/22/2019 03:00 218.84 0.00 39.9 -- 35.4 14.0
02/22/2019 02:00 218.84 0.00 39.9 -- 35.4 14.0
02/22/2019 01:00 218.85 0.00 39.9 -- 37.6 14.3
02/22/2019 00:00 218.84 0.00 39.9 0.03 37.9 14.0
02/21/2019 23:00 218.84 0.01 39.9 -- 38.6 14.3
02/21/2019 22:00 218.84 0.00 40.0 -- 38.4 14.3
02/21/2019 21:00 218.86 0.01 40.0 -- 39.8 14.8
02/21/2019 20:00 218.84 0.02 39.9 -- 39.7 14.5
02/21/2019 19:00 218.84 0.01 39.9 -- 40.0 14.5
02/21/2019 18:00 218.85 0.01 39.9 -- 39.7 14.8
02/21/2019 17:00 218.85 0.03 39.9 -- 41.2 14.8
02/21/2019 16:00 218.85 0.06 39.9 -- 45.0 14.8
02/21/2019 15:00 218.84 0.09 40.0 -- 42.5 14.8
02/21/2019 14:00 218.85 0.14 40.0 -- 43.3 14.8
02/21/2019 13:00 218.86 0.06 40.0 -- 37.6 15.0
02/21/2019 12:00 218.84 0.01 40.0 -- 35.7 14.5
02/21/2019 11:00 218.84 0.00 40.0 -- 32.7 14.8
02/21/2019 10:00 218.86 0.00 40.0 -- 30.5 15.0
02/21/2019 09:00 218.86 0.00 40.0 -- 26.8 15.0
02/21/2019 08:00 218.85 0.00 39.9 -- 25.0 15.0
02/21/2019 07:00 218.85 0.00 39.9 -- 24.1 15.0
02/21/2019 06:00 218.87 0.00 40.0 -- 23.1 15.0
02/21/2019 05:00 218.87 0.00 40.0 -- 22.2 15.0
02/21/2019 04:00 218.86 0.00 40.0 -- 22.3 15.0
02/21/2019 03:00 218.85 0.00 40.0 -- 22.0 15.0
02/21/2019 02:00 218.85 0.00 39.9 -- 22.0 14.8
02/21/2019 01:00 218.84 0.00 39.9 -- 22.1 14.5
02/21/2019 00:00 218.85 0.00 40.0 0.45 22.2 14.3
02/20/2019 23:00 218.84 0.00 40.0 -- 22.2 14.0
02/20/2019 22:00 218.84 0.00 40.0 -- 22.4 14.0
02/20/2019 21:00 218.84 0.00 40.0 -- 25.6 14.0
02/20/2019 20:00 218.84 0.00 40.0 -- 25.5 14.0
02/20/2019 19:00 218.84 0.00 40.0 -- 26.0 14.5
02/20/2019 18:00 218.84 0.00 40.0 -- 26.1 14.3
02/20/2019 17:00 218.85 0.00 40.0 -- 27.1 15.0
02/20/2019 16:00 218.85 0.00 39.9 -- 27.6 15.0
02/20/2019 15:00 218.85 0.00 39.9 -- 27.9 15.0
02/20/2019 14:00 218.85 0.00 40.0 -- 27.5 15.0
02/20/2019 13:00 218.85 0.00 40.0 -- 27.3 15.0
02/20/2019 12:00 218.85 0.00 39.9 -- 26.3 15.0
02/20/2019 11:00 218.86 0.00 39.9 -- 24.4 15.0
02/20/2019 10:00 218.86 0.00 39.9 -- 23.9 15.0
02/20/2019 09:00 218.86 0.00 39.9 -- 20.0 15.0
02/20/2019 08:00 218.86 0.00 39.9 -- 14.5 15.0
02/20/2019 07:00 218.86 0.00 39.9 -- 11.9 15.0
02/20/2019 06:00 218.85 0.00 40.0 -- 12.7 15.0
02/20/2019 05:00 218.87 0.00 40.0 -- 11.9 15.0
02/20/2019 04:00 218.87 0.00 39.9 -- 10.7 15.0
02/20/2019 03:00 218.87 0.00 39.9 -- 11.4 15.0
02/20/2019 02:00 218.87 0.00 39.9 -- 11.1 15.0
02/20/2019 01:00 218.87 0.00 39.9 -- 9.9 15.0
02/20/2019 00:00 218.87 0.00 39.9 0.00 7.7 15.0
02/19/2019 23:00 218.87 0.00 39.9 -- 8.0 15.0
02/19/2019 22:00 218.88 0.00 39.9 -- 9.4 15.0
02/19/2019 21:00 218.88 0.00 39.9 -- 12.0 15.0
02/19/2019 20:00 218.88 0.00 39.9 -- 17.7 15.0
02/19/2019 19:00 218.88 0.00 39.9 -- 20.5 15.0
02/19/2019 18:00 218.89 0.00 39.9 -- 22.5 15.0
02/19/2019 17:00 218.88 0.00 39.9 -- 24.5 15.0
02/19/2019 16:00 218.89 0.00 39.9 -- 26.9 15.3
02/19/2019 15:00 218.89 0.00 39.9 -- 28.8 15.0
02/19/2019 14:00 218.89 0.00 39.9 -- 27.6 15.0
02/19/2019 13:00 218.91 0.00 39.9 -- 28.1 15.3
02/19/2019 12:00 218.92 0.00 39.9 -- 24.5 15.5
02/19/2019 11:00 218.91 0.00 39.9 -- 22.5 15.8
02/19/2019 10:00 218.89 0.00 39.9 -- 20.8 15.5
02/19/2019 09:00 218.90 0.00 39.9 -- 16.1 15.5
02/19/2019 08:00 218.91 0.00 39.9 -- 13.1 15.3
02/19/2019 07:00 218.93 0.00 39.9 -- 12.0 15.3
02/19/2019 06:00 218.90 0.00 39.9 -- 12.4 15.3
02/19/2019 05:00 218.91 0.00 39.9 -- 12.5 15.8
02/19/2019 04:00 218.90 0.00 39.9 -- 12.9 15.5
02/19/2019 03:00 218.89 0.00 39.9 -- 14.1 15.5
02/19/2019 02:00 218.90 0.00 39.9 -- 14.7 15.5
02/19/2019 01:00 218.91 0.00 39.9 -- 14.1 15.8
02/19/2019 00:00 218.94 0.00 39.9 0.00 14.1 15.8
02/18/2019 23:00 218.92 0.00 39.9 -- 15.2 15.8
02/18/2019 22:00 218.91 0.00 39.9 -- 16.8 15.8
02/18/2019 21:00 218.91 0.00 39.9 -- 19.4 16.0
02/18/2019 20:00 218.92 0.00 39.9 -- 21.1 16.0
02/18/2019 19:00 218.92 0.00 39.9 -- 22.9 16.0
02/18/2019 18:00 218.92 0.00 39.9 -- 24.0 16.0
02/18/2019 17:00 218.93 0.00 39.9 -- 24.5 16.0
02/18/2019 16:00 218.93 0.00 39.9 -- 24.9 16.0
02/18/2019 15:00 218.93 0.00 39.9 -- 24.0 16.0
02/18/2019 14:00 218.93 0.00 39.9 -- 22.6 16.0
02/18/2019 13:00 218.93 0.00 39.9 -- 21.8 16.0
02/18/2019 12:00 218.92 0.00 39.9 -- 21.3 16.0
02/18/2019 11:00 218.92 0.00 39.9 -- 21.3 16.0
02/18/2019 10:00 218.92 0.00 39.9 -- 21.3 16.0
02/18/2019 09:00 218.94 0.00 39.9 -- 22.1 16.0
02/18/2019 08:00 218.93 0.00 39.9 -- 23.6 16.0
02/18/2019 07:00 218.93 0.00 39.9 -- 24.0 16.0
02/18/2019 06:00 218.94 0.00 39.9 -- 24.1 16.0
02/18/2019 05:00 218.94 0.00 39.9 -- 24.1 16.0
02/18/2019 04:00 218.94 0.00 39.9 -- 24.1 16.0
02/18/2019 03:00 218.94 0.00 39.9 -- 24.7 16.0
02/18/2019 02:00 218.94 0.00 39.9 -- 25.0 16.0
02/18/2019 01:00 218.94 0.00 39.9 -- 24.6 16.0
02/18/2019 00:00 218.95 0.00 39.9 0.00 24.3 16.0
02/17/2019 23:00 218.95 0.00 39.9 -- 24.0 16.0
02/17/2019 22:00 218.95 0.00 39.9 -- 23.6 16.0
02/17/2019 21:00 218.96 0.00 39.9 -- 23.2 16.0
02/17/2019 20:00 218.95 0.00 39.9 -- 23.2 16.0
02/17/2019 19:00 218.95 0.00 39.9 -- 24.1 16.0
02/17/2019 18:00 218.96 0.00 39.9 -- 26.7 16.0
02/17/2019 17:00 218.96 0.00 39.9 -- 30.9 16.0
02/17/2019 16:00 218.96 0.00 39.9 -- 33.0 16.0
02/17/2019 15:00 218.96 0.00 39.9 -- 33.2 16.5
02/17/2019 14:00 218.96 0.00 39.9 -- 36.5 16.0
02/17/2019 13:00 218.96 0.00 39.9 -- 31.8 16.8
02/17/2019 12:00 218.97 0.00 39.9 -- 29.5 17.0
02/17/2019 11:00 218.97 0.00 39.9 -- 26.6 16.8
02/17/2019 10:00 218.97 0.00 39.9 -- 25.3 17.0
02/17/2019 09:00 218.98 0.00 39.9 -- 20.7 17.0
02/17/2019 08:00 218.98 0.00 39.9 -- 18.2 17.0
02/17/2019 07:00 218.97 0.00 39.9 -- 16.4 17.0
02/17/2019 06:00 218.97 0.00 39.9 -- 17.7 17.0
02/17/2019 05:00 218.98 0.00 39.9 -- 18.0 17.0
02/17/2019 04:00 218.98 0.00 39.9 -- 19.0 17.0
02/17/2019 03:00 218.98 0.00 39.9 -- 20.0 17.0
02/17/2019 02:00 219.00 0.00 39.9 -- 20.7 17.0
02/17/2019 01:00 218.98 0.00 39.9 -- 21.4 17.0
02/17/2019 00:00 219.00 0.00 39.9 0.00 22.0 17.0
02/16/2019 23:00 218.99 0.00 39.8 -- 23.7 17.0
02/16/2019 22:00 219.00 0.00 39.8 -- 26.2 17.0
02/16/2019 21:00 218.99 0.00 39.8 -- 28.4 17.0
02/16/2019 20:00 218.98 0.00 39.8 -- 30.1 17.0
02/16/2019 19:00 218.99 0.00 39.8 -- 31.2 17.0
02/16/2019 18:00 219.00 0.00 39.8 -- 33.4 17.0
02/16/2019 17:00 219.00 0.00 39.9 -- 35.2 17.0
02/16/2019 16:00 218.99 0.00 39.9 -- 37.6 17.0
02/16/2019 15:00 219.02 0.00 39.9 -- 37.5 17.3
02/16/2019 14:00 219.03 0.01 39.8 -- 38.2 17.5
02/16/2019 13:00 219.01 0.01 39.9 -- 37.4 17.0
02/16/2019 12:00 219.00 0.01 39.9 -- 39.0 17.0
02/16/2019 11:00 219.01 0.01 39.9 -- 37.3 17.0
02/16/2019 10:00 219.01 0.00 39.9 -- 35.5 17.0
02/16/2019 09:00 219.01 0.00 39.9 -- 32.9 17.5
02/16/2019 08:00 219.01 0.00 39.9 -- 28.9 17.0
02/16/2019 07:00 219.02 0.00 39.9 -- 26.5 17.0
02/16/2019 06:00 219.02 0.00 39.9 -- 27.2 17.0
02/16/2019 05:00 219.02 0.00 39.9 -- 31.1 17.3
02/16/2019 04:00 219.03 0.00 39.9 -- 32.1 17.3
02/16/2019 03:00 219.03 0.00 39.9 -- 32.3 17.5
02/16/2019 02:00 219.02 0.00 39.9 -- 32.3 17.5
02/16/2019 01:00 219.02 0.00 39.9 -- 33.2 17.0
02/16/2019 00:00 219.02 0.02 39.8 0.04 34.1 17.8
02/15/2019 23:00 219.03 0.02 39.9 -- 37.7 18.0
02/15/2019 22:00 219.03 0.00 39.9 -- 31.9 18.0
02/15/2019 21:00 219.03 0.00 39.8 -- 32.1 18.0
02/15/2019 20:00 219.03 0.01 39.8 -- 32.4 18.0
02/15/2019 19:00 219.04 0.01 39.8 -- 32.6 18.0
02/15/2019 18:00 219.04 0.01 39.8 -- 33.1 18.0
02/15/2019 17:00 219.04 0.02 39.8 -- 33.6 18.0
02/15/2019 16:00 219.04 0.03 39.8 -- 33.9 18.0
02/15/2019 15:00 219.04 0.03 39.8 -- 34.2 18.0
02/15/2019 14:00 219.04 0.04 39.8 -- 34.8 18.0
02/15/2019 13:00 219.05 0.00 39.8 -- 36.1 18.0
02/15/2019 12:00 219.05 0.01 39.9 -- 35.3 18.0
02/15/2019 11:00 219.04 0.00 39.9 -- 34.3 18.0
02/15/2019 10:00 219.05 0.00 39.9 -- 31.0 18.0
02/15/2019 09:00 219.05 0.00 39.8 -- 26.4 18.0
02/15/2019 08:00 219.05 0.00 39.9 -- 23.6 18.0
02/15/2019 07:00 219.05 0.00 39.9 -- 21.1 18.0
02/15/2019 06:00 219.05 0.00 39.8 -- 18.8 18.0
02/15/2019 05:00 219.06 0.00 39.8 -- 18.8 18.0
02/15/2019 04:00 219.06 0.00 39.8 -- 20.1 18.0
02/15/2019 03:00 219.06 0.00 39.9 -- 20.1 18.0
02/15/2019 02:00 219.07 0.00 39.9 -- 20.7 18.0
02/15/2019 01:00 219.07 0.00 39.9 -- 21.7 18.0
02/15/2019 00:00 219.07 0.00 39.9 0.20 21.6 18.0
02/14/2019 23:00 219.06 0.00 39.8 -- 20.4 18.0
02/14/2019 22:00 219.08 0.00 39.8 -- 20.6 18.0
02/14/2019 21:00 219.08 0.00 39.8 -- 22.0 18.0
02/14/2019 20:00 219.08 0.00 39.8 -- 23.8 18.0
02/14/2019 19:00 219.08 0.00 39.8 -- 25.9 18.0
02/14/2019 18:00 219.08 0.00 39.8 -- 28.3 18.0
02/14/2019 17:00 219.08 0.00 39.8 -- 32.8 18.8
02/14/2019 16:00 219.07 0.00 39.8 -- 36.1 18.5
02/14/2019 15:00 219.08 0.00 39.8 -- 35.8 18.3
02/14/2019 14:00 219.09 0.02 39.8 -- 36.0 19.0
02/14/2019 13:00 219.09 0.00 39.8 -- 35.4 18.8
02/14/2019 12:00 219.10 0.00 39.8 -- 34.2 18.8
02/14/2019 11:00 219.08 0.00 39.8 -- 34.2 18.5
02/14/2019 10:00 219.08 0.01 39.8 -- 30.6 18.3
02/14/2019 09:00 219.09 0.00 39.8 -- 28.2 19.0
02/14/2019 08:00 219.10 0.00 39.9 -- 26.0 19.0
02/14/2019 07:00 219.10 0.00 39.9 -- 25.0 19.0
02/14/2019 06:00 219.10 0.00 39.8 -- 22.3 19.0
02/14/2019 05:00 219.10 0.00 39.8 -- 22.9 19.0
02/14/2019 04:00 219.10 0.00 39.8 -- 21.2 19.0
02/14/2019 03:00 219.10 0.00 39.8 -- 22.9 19.0
02/14/2019 02:00 219.10 0.00 39.8 -- 23.7 19.0
02/14/2019 01:00 219.10 0.00 39.9 -- 26.6 19.0
02/14/2019 00:00 219.11 0.00 39.8 0.03 27.4 19.0
02/13/2019 23:00 219.11 0.00 39.8 -- 28.5 19.0
02/13/2019 22:00 219.11 0.00 39.8 -- 29.8 19.0
02/13/2019 21:00 219.12 0.00 39.8 -- 29.8 19.0
02/13/2019 20:00 219.12 0.00 39.8 -- 28.2 19.0
02/13/2019 19:00 219.12 0.00 39.8 -- 30.2 19.0
02/13/2019 18:00 219.12 0.00 39.8 -- 31.1 19.0
02/13/2019 17:00 219.13 0.00 39.8 -- 33.0 19.0
02/13/2019 16:00 219.12 0.00 39.8 -- 34.2 19.0
02/13/2019 15:00 219.12 0.02 39.8 -- 34.1 19.0
02/13/2019 14:00 219.12 0.02 39.8 -- 34.3 19.0
02/13/2019 13:00 219.13 0.02 39.8 -- 34.0 19.0
02/13/2019 12:00 219.13 0.01 39.8 -- 33.8 19.0
02/13/2019 11:00 219.13 0.00 39.8 -- 30.4 19.0
02/13/2019 10:00 219.13 0.00 39.8 -- 29.3 19.0
02/13/2019 09:00 219.14 0.00 39.8 -- 28.6 19.0
02/13/2019 08:00 219.15 0.00 39.8 -- 28.2 19.3
02/13/2019 07:00 219.13 0.02 39.8 -- 28.4 19.3
02/13/2019 06:00 219.14 0.04 39.8 -- 30.3 19.5
02/13/2019 05:00 219.13 0.08 39.8 -- 32.7 19.0
02/13/2019 04:00 219.12 0.08 39.8 -- 32.4 19.0
02/13/2019 03:00 219.11 0.00 39.8 -- 31.2 19.0
02/13/2019 02:00 219.10 0.00 39.8 -- 25.9 19.0
02/13/2019 01:00 219.11 0.00 39.8 -- 22.5 19.0
02/13/2019 00:00 219.09 0.00 39.8 0.29 21.1 19.0
02/12/2019 23:00 219.09 0.00 39.8 -- 20.0 18.8
02/12/2019 22:00 219.08 0.00 39.8 -- 19.2 18.5
02/12/2019 21:00 219.07 0.00 39.8 -- 18.6 18.0
02/12/2019 20:00 219.07 0.00 39.8 -- 18.1 18.0
02/12/2019 19:00 219.06 0.00 39.8 -- 18.1 18.0
02/12/2019 18:00 219.05 0.00 39.8 -- 18.1 18.0
02/12/2019 17:00 219.06 0.00 39.8 -- 18.4 18.0
02/12/2019 16:00 219.05 0.00 39.8 -- 19.5 18.0
02/12/2019 15:00 219.05 0.00 39.8 -- 20.4 18.0
02/12/2019 14:00 219.05 0.00 39.8 -- 20.3 18.0
02/12/2019 13:00 219.06 0.00 39.9 -- 20.0 18.0
02/12/2019 12:00 219.06 0.00 39.8 -- 19.9 18.0
02/12/2019 11:00 219.06 0.00 39.8 -- 18.0 18.0
02/12/2019 10:00 219.07 0.00 39.8 -- 17.0 18.0
02/12/2019 09:00 219.06 0.00 39.8 -- 15.3 18.0
02/12/2019 08:00 219.07 0.00 39.9 -- 13.4 18.0
02/12/2019 07:00 219.07 0.00 39.8 -- 9.5 18.0
02/12/2019 06:00 219.07 0.00 39.8 -- 9.3 18.0
02/12/2019 05:00 219.07 0.00 39.8 -- 10.6 18.0
02/12/2019 04:00 219.07 0.00 39.8 -- 11.8 18.0
02/12/2019 03:00 219.07 0.00 39.8 -- 12.8 18.3
02/12/2019 02:00 219.08 0.00 39.9 -- 14.1 18.5
02/12/2019 01:00 219.09 0.00 39.9 -- 15.7 19.0
02/12/2019 00:00 219.08 0.00 39.8 0.00 17.1 18.0
02/11/2019 23:00 219.08 0.00 39.8 -- 18.5 18.5
02/11/2019 22:00 219.09 0.00 39.8 -- 20.3 18.8
02/11/2019 21:00 219.08 0.00 39.9 -- 22.1 18.5
02/11/2019 20:00 219.09 0.00 39.8 -- 23.5 19.0
02/11/2019 19:00 219.09 0.00 39.9 -- 25.1 18.8
02/11/2019 18:00 219.09 0.00 39.8 -- 26.4 19.0
02/11/2019 17:00 219.08 0.00 39.9 -- 28.0 18.8
02/11/2019 16:00 219.09 0.00 39.8 -- 30.4 19.0
02/11/2019 15:00 219.11 0.00 39.8 -- 29.3 18.8
02/11/2019 14:00 219.12 0.00 39.8 -- 29.4 19.0
02/11/2019 13:00 219.11 0.00 39.9 -- 29.5 19.0
02/11/2019 12:00 219.10 0.00 39.9 -- 29.6 19.0
02/11/2019 11:00 219.11 0.00 39.8 -- 27.6 19.0
02/11/2019 10:00 219.11 0.00 39.9 -- 25.8 19.0
02/11/2019 09:00 219.10 0.00 39.9 -- 22.8 19.0
02/11/2019 08:00 219.10 0.00 39.9 -- 21.5 19.0
02/11/2019 07:00 219.11 0.00 39.8 -- 21.3 19.0
02/11/2019 06:00 219.10 0.00 39.8 -- 21.6 19.0
02/11/2019 05:00 219.11 0.00 39.8 -- 22.0 19.0
02/11/2019 04:00 219.10 0.00 39.8 -- 22.3 19.0
02/11/2019 03:00 219.12 0.00 39.8 -- 22.8 19.0
02/11/2019 02:00 219.10 0.00 39.8 -- 23.6 19.0
02/11/2019 01:00 219.11 0.00 39.9 -- 24.2 19.0
02/11/2019 00:00 219.11 0.00 39.9 0.00 24.8 19.0
02/10/2019 23:00 219.12 0.00 39.9 -- 23.9 19.0
02/10/2019 22:00 219.12 0.00 39.9 -- 23.0 19.0
02/10/2019 21:00 219.12 0.00 39.9 -- 23.1 19.0
02/10/2019 20:00 219.13 0.00 39.8 -- 24.9 19.0
02/10/2019 19:00 219.13 0.00 39.8 -- 26.5 19.0
02/10/2019 18:00 219.12 0.00 39.8 -- 27.5 19.0
02/10/2019 17:00 219.13 0.00 39.8 -- 28.6 19.0
02/10/2019 16:00 219.12 0.00 39.9 -- 30.1 19.0
02/10/2019 15:00 219.13 0.00 39.9 -- 30.9 19.0
02/10/2019 14:00 219.12 0.00 39.9 -- 30.8 19.5
02/10/2019 13:00 219.13 0.00 39.8 -- 30.6 19.0
02/10/2019 12:00 219.11 0.00 39.8 -- 28.1 19.3
02/10/2019 11:00 219.13 0.00 39.8 -- 26.0 19.3
02/10/2019 10:00 219.13 0.00 39.8 -- 23.1 19.3
02/10/2019 09:00 219.11 0.00 39.8 -- 20.7 19.0
02/10/2019 08:00 219.13 0.00 39.8 -- 17.9 19.0
02/10/2019 07:00 219.14 0.00 39.8 -- 13.5 19.0
02/10/2019 06:00 219.14 0.00 39.8 -- 13.2 19.3
02/10/2019 05:00 219.14 0.00 39.8 -- 13.6 19.3
02/10/2019 04:00 219.14 0.00 39.9 -- 13.9 19.3
02/10/2019 03:00 219.14 0.00 39.9 -- 13.9 19.8
02/10/2019 02:00 219.14 0.00 39.8 -- 15.8 19.5
02/10/2019 01:00 219.14 0.00 39.8 -- 16.1 19.5
02/10/2019 00:00 219.14 0.00 39.8 0.00 16.0 19.5
02/09/2019 23:00 219.14 0.00 39.8 -- 18.4 19.8
02/09/2019 22:00 219.14 0.00 39.8 -- 21.4 19.5
02/09/2019 21:00 219.14 0.00 39.8 -- 22.3 19.8
02/09/2019 20:00 219.15 0.00 39.8 -- 23.4 20.0
02/09/2019 19:00 219.14 0.00 39.8 -- 24.3 19.5
02/09/2019 18:00 219.14 0.00 39.9 -- 25.4 20.0
02/09/2019 17:00 219.14 0.00 39.9 -- 26.9 19.5
02/09/2019 16:00 219.13 0.00 39.8 -- 29.4 19.8
02/09/2019 15:00 219.15 0.00 39.8 -- 29.0 19.8
02/09/2019 14:00 219.13 0.00 39.9 -- 29.1 19.5
02/09/2019 13:00 219.12 0.00 39.9 -- 29.5 19.3
02/09/2019 12:00 219.20 0.00 39.9 -- 27.7 19.8
02/09/2019 11:00 219.13 0.00 39.9 -- 25.8 19.3
02/09/2019 10:00 219.13 0.00 39.8 -- 24.6 19.5
02/09/2019 09:00 219.15 0.00 39.8 -- 21.9 19.8
02/09/2019 08:00 219.15 0.00 39.8 -- 20.8 19.8
02/09/2019 07:00 219.13 0.00 39.8 -- 20.3 19.3
02/09/2019 06:00 219.17 0.00 39.8 -- 20.6 19.5
02/09/2019 05:00 219.16 0.00 39.8 -- 21.1 20.0
02/09/2019 04:00 219.15 0.00 39.8 -- 21.8 19.5
02/09/2019 03:00 219.15 0.00 39.8 -- 23.1 19.3
02/09/2019 02:00 219.14 0.00 39.8 -- 24.2 19.3
02/09/2019 01:00 219.14 0.00 39.8 -- 25.0 19.8
02/09/2019 00:00 219.13 0.00 39.8 0.00 27.1 19.0
02/08/2019 23:00 219.16 0.00 39.8 -- 28.0 19.5
02/08/2019 22:00 219.10 0.00 39.8 -- 28.9 19.3
02/08/2019 21:00 219.13 0.00 39.8 -- 30.2 19.0
02/08/2019 20:00 219.13 0.00 39.8 -- 31.8 19.0
02/08/2019 19:00 219.11 0.00 39.8 -- 34.9 19.0
02/08/2019 18:00 219.10 0.00 39.8 -- 39.0 19.0
02/08/2019 17:00 219.09 0.00 39.8 -- 42.4 19.5
02/08/2019 16:00 219.14 0.00 39.8 -- 46.0 18.8
02/08/2019 15:00 219.12 0.01 39.8 -- 47.7 19.0
02/08/2019 14:00 219.10 0.00 39.9 -- 49.0 19.0
02/08/2019 13:00 219.10 0.00 39.9 -- 44.9 19.0
02/08/2019 12:00 219.10 0.00 39.8 -- 39.4 19.0
02/08/2019 11:00 219.09 0.05 39.8 -- 36.4 19.0
02/08/2019 10:00 219.10 0.03 39.8 -- 35.1 18.8
02/08/2019 09:00 219.07 0.01 39.8 -- 34.6 18.5
02/08/2019 08:00 219.09 0.00 39.8 -- 33.8 18.3
02/08/2019 07:00 219.08 0.00 39.8 -- 33.6 18.0
02/08/2019 06:00 219.08 0.00 39.8 -- 33.5 18.0
02/08/2019 05:00 219.07 0.00 39.8 -- 33.3 18.3
02/08/2019 04:00 219.08 0.02 39.8 -- 33.0 18.0
02/08/2019 03:00 219.06 0.05 39.8 -- 33.1 18.0
02/08/2019 02:00 219.06 0.01 39.8 -- 33.0 18.0
02/08/2019 01:00 219.05 0.00 39.8 -- 33.2 18.0
02/08/2019 00:00 219.06 0.01 39.8 0.18 33.1 18.0
02/07/2019 23:00 219.06 0.00 39.8 -- 33.2 18.0
02/07/2019 22:00 219.05 0.00 39.8 -- 33.2 18.0
02/07/2019 21:00 219.05 0.00 39.8 -- 33.4 18.0
02/07/2019 20:00 219.05 0.00 39.8 -- 33.7 18.0
02/07/2019 19:00 219.05 0.00 39.8 -- 33.8 18.0
02/07/2019 18:00 219.04 0.00 39.8 -- 33.8 18.0
02/07/2019 17:00 219.04 0.00 39.9 -- 34.2 18.0
02/07/2019 16:00 219.05 0.00 39.8 -- 35.0 18.0
02/07/2019 15:00 219.04 0.00 39.8 -- 34.5 18.0
02/07/2019 14:00 219.04 0.01 39.8 -- 34.2 18.0
02/07/2019 13:00 219.04 0.01 39.8 -- 33.8 18.0
02/07/2019 12:00 219.04 0.01 39.8 -- 33.3 18.0
02/07/2019 11:00 219.03 0.12 39.8 -- 32.6 18.0
02/07/2019 10:00 219.04 0.00 39.8 -- 32.5 18.0
02/07/2019 09:00 219.03 0.00 39.8 -- 32.2 18.0
02/07/2019 08:00 219.03 0.00 39.8 -- 31.7 18.0
02/07/2019 07:00 219.03 0.00 39.8 -- 31.6 18.0
02/07/2019 06:00 219.03 0.00 39.8 -- 31.6 18.0
02/07/2019 05:00 219.03 0.00 39.8 -- 31.7 18.0
02/07/2019 04:00 219.03 0.00 39.8 -- 31.7 17.8
02/07/2019 03:00 219.02 0.00 39.8 -- 31.7 17.3
02/07/2019 02:00 219.03 0.00 39.8 -- 31.8 18.0
02/07/2019 01:00 219.03 0.00 39.8 -- 31.8 17.5
02/07/2019 00:00 219.02 0.03 39.8 0.16 31.6 17.0
02/06/2019 23:00 219.02 0.12 39.8 -- 31.2 17.0
02/06/2019 22:00 219.00 0.08 39.8 -- 30.7 17.0
02/06/2019 21:00 219.00 0.06 39.8 -- 30.0 17.0
02/06/2019 20:00 218.98 0.00 39.8 -- 29.6 17.0
02/06/2019 19:00 218.98 0.00 39.8 -- 29.9 17.0
02/06/2019 18:00 218.98 0.00 39.8 -- 29.7 17.0
02/06/2019 17:00 218.99 0.00 39.8 -- 30.3 17.0
02/06/2019 16:00 218.98 0.00 39.8 -- 31.7 17.0
02/06/2019 15:00 218.98 0.00 39.8 -- 33.6 17.0
02/06/2019 14:00 218.98 0.00 39.8 -- 36.6 17.0
02/06/2019 13:00 218.98 0.00 39.8 -- 38.3 17.0
02/06/2019 12:00 218.98 0.00 39.9 -- 36.9 17.0
02/06/2019 11:00 218.98 0.00 39.8 -- 35.0 17.0
02/06/2019 10:00 218.97 0.00 39.8 -- 31.9 17.0
02/06/2019 09:00 218.98 0.00 39.8 -- 29.5 17.0
02/06/2019 08:00 218.98 0.00 39.8 -- 25.7 17.0
02/06/2019 07:00 218.98 0.00 39.8 -- 25.9 17.0
02/06/2019 06:00 218.98 0.00 39.8 -- 26.3 17.0
02/06/2019 05:00 218.98 0.00 39.8 -- 27.7 17.0
02/06/2019 04:00 218.99 0.00 39.8 -- 29.6 17.0
02/06/2019 03:00 218.98 0.00 39.8 -- 30.9 17.0
02/06/2019 02:00 218.97 0.00 39.8 -- 32.5 17.0
02/06/2019 01:00 218.98 0.00 39.8 -- 34.0 16.8
02/06/2019 00:00 218.97 0.00 39.8 0.29 35.5 17.0
02/05/2019 23:00 218.96 0.00 39.8 -- 37.5 16.5
02/05/2019 22:00 218.96 0.00 39.7 -- 39.3 16.8
02/05/2019 21:00 218.97 0.00 39.8 -- 41.9 16.5
02/05/2019 20:00 218.96 0.00 39.8 -- 44.9 16.5
02/05/2019 19:00 218.96 0.00 39.8 -- 49.9 16.3
02/05/2019 18:00 218.96 0.00 39.8 -- 52.5 16.0
02/05/2019 17:00 218.96 0.00 39.8 -- 54.3 16.0
02/05/2019 16:00 218.97 0.00 39.8 -- 58.4 16.3
02/05/2019 15:00 218.96 0.00 39.8 -- 60.2 16.5
02/05/2019 14:00 218.96 0.00 39.8 -- 60.9 16.0
02/05/2019 13:00 218.95 0.00 39.8 -- 60.4 16.0
02/05/2019 12:00 218.94 0.00 39.8 -- 58.4 16.0
02/05/2019 11:00 218.95 0.00 39.8 -- 54.7 16.0
02/05/2019 10:00 218.96 0.00 39.8 -- 44.9 16.0
02/05/2019 09:00 218.95 0.00 39.8 -- 35.0 16.0
02/05/2019 08:00 218.95 0.00 39.8 -- 32.8 16.0
02/05/2019 07:00 218.96 0.00 39.8 -- 31.3 16.3
02/05/2019 06:00 218.97 0.00 39.8 -- 30.3 17.0
02/05/2019 05:00 218.96 0.00 39.8 -- 30.4 16.3
02/05/2019 04:00 218.96 0.00 39.8 -- 30.5 16.8
02/05/2019 03:00 218.97 0.00 39.8 -- 28.8 17.0
02/05/2019 02:00 218.97 0.00 39.7 -- 28.2 16.5
02/05/2019 01:00 218.97 0.00 39.7 -- 29.0 17.0
02/05/2019 00:00 218.98 0.00 39.7 0.00 29.3 17.0
02/04/2019 23:00 218.98 0.00 39.7 -- 29.7 17.0
02/04/2019 22:00 218.97 0.00 39.7 -- 30.4 17.0
02/04/2019 21:00 218.98 0.00 39.7 -- 31.5 17.0
02/04/2019 20:00 218.98 0.00 39.7 -- 32.2 17.0
02/04/2019 19:00 218.98 0.00 39.8 -- 33.7 17.0
02/04/2019 18:00 218.99 0.00 39.8 -- 35.4 17.0
02/04/2019 17:00 218.98 0.00 39.8 -- 41.0 17.0
02/04/2019 16:00 218.99 0.00 39.7 -- 52.8 17.0
02/04/2019 15:00 218.98 0.00 39.7 -- 58.0 17.0
02/04/2019 14:00 218.98 0.00 39.8 -- 59.5 17.0
02/04/2019 13:00 218.98 0.09 39.8 -- 58.0 17.0
02/04/2019 12:00 218.99 0.17 39.8 -- 55.5 17.0
02/04/2019 11:00 218.99 0.03 39.7 -- 51.1 17.0
02/04/2019 10:00 218.99 0.00 39.7 -- 41.4 17.0
02/04/2019 09:00 219.00 0.00 39.7 -- 39.1 17.0
02/04/2019 08:00 218.98 0.00 39.7 -- 35.2 17.0
02/04/2019 07:00 219.00 0.00 39.7 -- 29.2 17.0
02/04/2019 06:00 219.01 0.00 39.7 -- 29.7 17.0
02/04/2019 05:00 219.00 0.00 39.7 -- 30.6 17.0
02/04/2019 04:00 219.00 0.00 39.7 -- 31.0 17.0
02/04/2019 03:00 219.00 0.00 39.7 -- 30.8 17.0
02/04/2019 02:00 219.01 0.00 39.7 -- 30.8 17.0
02/04/2019 01:00 219.02 0.00 39.7 -- 30.6 17.0
02/04/2019 00:00 219.01 0.00 39.8 0.29 30.1 17.0
02/03/2019 23:00 219.01 0.00 39.8 -- 30.1 17.0
02/03/2019 22:00 219.02 0.00 39.7 -- 30.1 17.0
02/03/2019 21:00 219.02 0.00 39.7 -- 29.9 17.8
02/03/2019 20:00 219.02 0.00 39.7 -- 29.8 17.5
02/03/2019 19:00 219.03 0.00 39.7 -- 29.9 17.3
02/03/2019 18:00 219.02 0.00 39.8 -- 30.4 17.5
02/03/2019 17:00 219.03 0.00 39.8 -- 31.1 18.0
02/03/2019 16:00 219.03 0.00 39.7 -- 31.8 18.0
02/03/2019 15:00 219.03 0.00 39.7 -- 31.9 18.0
02/03/2019 14:00 219.04 0.00 39.7 -- 33.3 18.0
02/03/2019 13:00 219.04 0.00 39.7 -- 32.6 18.0
02/03/2019 12:00 219.04 0.00 39.7 -- 30.8 18.0
02/03/2019 11:00 219.04 0.00 39.7 -- 28.8 18.0
02/03/2019 10:00 219.05 0.00 39.7 -- 27.5 18.0
02/03/2019 09:00 219.05 0.00 39.7 -- 18.7 18.0
02/03/2019 08:00 219.04 0.00 39.8 -- 16.4 18.0
02/03/2019 07:00 219.04 0.00 39.8 -- 12.2 18.0
02/03/2019 06:00 219.05 0.00 39.7 -- 13.2 18.0
02/03/2019 05:00 219.05 0.00 39.7 -- 15.7 18.0
02/03/2019 04:00 219.06 0.00 39.7 -- 18.1 18.0
02/03/2019 03:00 219.06 0.00 39.7 -- 21.1 18.0
02/03/2019 02:00 219.06 0.00 39.7 -- 24.6 18.0
02/03/2019 01:00 219.06 0.00 39.7 -- 20.4 18.0
02/03/2019 00:00 219.07 0.00 39.7 0.00 19.0 18.0
02/02/2019 23:00 219.06 0.00 39.7 -- 23.5 18.0
02/02/2019 22:00 219.07 0.00 39.7 -- 15.6 18.0
02/02/2019 21:00 219.07 0.00 39.7 -- 19.8 18.0
02/02/2019 20:00 219.07 0.00 39.7 -- 24.2 18.0
02/02/2019 19:00 219.08 0.00 39.7 -- 27.6 18.3
02/02/2019 18:00 219.08 0.00 39.6 -- 27.4 18.5
02/02/2019 17:00 219.07 0.00 39.7 -- 27.2 18.0
02/02/2019 16:00 219.09 0.00 39.7 -- 27.1 19.0
02/02/2019 15:00 219.09 0.00 39.7 -- 26.7 19.0
02/02/2019 14:00 219.09 0.00 39.7 -- 26.6 19.0
02/02/2019 13:00 219.10 0.00 39.8 -- 23.1 19.0
02/02/2019 12:00 219.10 0.00 39.8 -- 22.4 19.0
02/02/2019 11:00 219.10 0.00 39.7 -- 18.3 19.0
02/02/2019 10:00 219.10 0.00 39.8 -- 15.4 19.0
02/02/2019 09:00 219.10 0.00 39.8 -- 6.6 19.0
02/02/2019 08:00 219.10 0.00 39.8 -- -7.1 19.0
02/02/2019 07:00 219.11 0.00 39.7 -- -8.3 19.0
02/02/2019 06:00 219.10 0.00 39.7 -- -8.2 19.0
02/02/2019 05:00 219.10 0.00 39.6 -- -7.9 19.0
02/02/2019 04:00 219.11 0.00 39.6 -- -4.3 19.0
02/02/2019 03:00 219.11 0.00 39.6 -- -6.1 19.0
02/02/2019 02:00 219.12 0.00 39.6 -- -4.1 19.0
02/02/2019 01:00 219.12 0.00 39.6 -- -4.4 19.0
02/02/2019 00:00 219.12 0.00 39.7 0.00 4.5 19.0
02/01/2019 23:00 219.12 0.00 39.7 -- -1.0 19.0
02/01/2019 22:00 219.13 0.00 39.7 -- -0.1 19.0
02/01/2019 21:00 219.13 0.00 39.7 -- 6.1 19.0
02/01/2019 20:00 219.12 0.00 39.7 -- 7.2 19.0
02/01/2019 19:00 219.13 0.00 39.7 -- 10.6 19.5
02/01/2019 18:00 219.14 0.00 39.7 -- 13.8 19.5
02/01/2019 17:00 219.14 0.00 39.7 -- 17.6 19.5
02/01/2019 16:00 219.15 0.00 39.7 -- 20.3 19.8
02/01/2019 15:00 219.15 0.00 39.7 -- 20.7 19.8
02/01/2019 14:00 219.15 0.00 39.7 -- 21.1 19.8
02/01/2019 13:00 219.19 0.00 39.7 -- 19.3 19.8
02/01/2019 12:00 219.15 0.00 39.7 -- 18.5 20.0
02/01/2019 11:00 219.16 0.00 39.7 -- 15.7 19.5
02/01/2019 10:00 219.17 0.00 39.7 -- 12.6 20.0
02/01/2019 09:00 219.15 0.00 39.7 -- 7.8 20.0
02/01/2019 08:00 219.16 0.00 39.7 -- 4.1 20.0
02/01/2019 07:00 219.16 0.00 39.7 -- -3.0 20.0
02/01/2019 06:00 219.16 0.00 39.7 -- -3.8 20.0
02/01/2019 05:00 219.17 0.00 39.7 -- -3.2 20.0
02/01/2019 04:00 219.17 0.00 39.7 -- -8.6 20.0
02/01/2019 03:00 219.17 0.00 39.7 -- -5.7 20.0
02/01/2019 02:00 219.17 0.00 39.7 -- -4.4 20.0
02/01/2019 01:00 219.17 0.00 39.7 -- -3.8 20.0
02/01/2019 00:00 219.18 0.00 39.7 0.00 -1.9 20.0
01/31/2019 23:00 219.18 0.00 39.7 -- 0.2 20.0
01/31/2019 22:00 219.19 0.00 39.7 -- -4.6 20.0
01/31/2019 21:00 219.18 0.00 39.7 -- -2.1 20.0
01/31/2019 20:00 219.20 0.00 39.7 -- 0.1 20.3
01/31/2019 19:00 219.19 0.00 39.7 -- 3.9 20.8
01/31/2019 18:00 219.20 0.00 39.8 -- 10.1 20.5
01/31/2019 17:00 219.19 0.00 39.8 -- 12.4 21.0
01/31/2019 16:00 219.20 0.00 39.8 -- 14.4 20.5
01/31/2019 15:00 219.21 0.00 39.8 -- 16.2 21.0
01/31/2019 14:00 219.18 0.00 39.8 -- 14.8 20.5
01/31/2019 13:00 219.20 0.00 39.7 -- 14.9 21.0
01/31/2019 12:00 219.22 0.00 39.7 -- 12.9 20.8
01/31/2019 11:00 219.21 0.00 39.8 -- 10.2 21.0
01/31/2019 10:00 219.23 0.00 39.8 -- 6.8 21.0
01/31/2019 09:00 219.22 0.00 39.8 -- 1.8 21.0
01/31/2019 08:00 219.21 0.00 39.7 -- -1.1 21.0
01/31/2019 07:00 219.22 0.00 39.7 -- -2.0 21.0
01/31/2019 06:00 219.22 0.00 39.7 -- -1.7 21.0
01/31/2019 05:00 219.23 0.00 39.7 -- -1.0 21.0
01/31/2019 04:00 219.23 0.00 39.7 -- 0.1 21.0
01/31/2019 03:00 219.23 0.00 39.7 -- 0.9 21.0
01/31/2019 02:00 219.23 0.00 39.7 -- 2.3 21.0
01/31/2019 01:00 219.22 0.00 39.7 -- 4.1 21.0
01/31/2019 00:00 219.25 0.00 39.7 0.00 5.7 21.0
01/30/2019 23:00 219.27 0.00 39.7 -- 7.7 21.5
01/30/2019 22:00 219.24 0.00 39.7 -- 9.8 21.8
01/30/2019 21:00 219.25 0.00 39.7 -- 14.5 21.8
01/30/2019 20:00 219.25 0.00 39.7 -- 18.6 21.5
01/30/2019 19:00 219.23 0.00 39.7 -- 22.1 21.5
01/30/2019 18:00 219.26 0.00 39.7 -- 25.7 21.8
01/30/2019 17:00 219.25 0.00 39.7 -- 24.9 22.0
01/30/2019 16:00 219.25 0.00 39.7 -- 27.8 22.0
01/30/2019 15:00 219.25 0.00 39.7 -- 27.9 22.0
01/30/2019 14:00 219.27 0.01 39.7 -- 28.5 22.0
01/30/2019 13:00 219.25 0.00 39.7 -- 28.0 22.3
01/30/2019 12:00 219.27 0.00 39.7 -- 27.9 22.0
01/30/2019 11:00 219.25 0.01 39.7 -- 28.5 22.0
01/30/2019 10:00 219.28 0.00 39.7 -- 26.6 22.0
01/30/2019 09:00 219.28 0.00 39.7 -- 24.2 22.0
01/30/2019 08:00 219.27 0.00 39.7 -- 21.5 22.0
01/30/2019 07:00 219.28 0.00 39.7 -- 21.6 22.0
01/30/2019 06:00 219.28 0.00 39.7 -- 21.4 22.0
01/30/2019 05:00 219.28 0.00 39.7 -- 20.8 22.0
01/30/2019 04:00 219.28 0.00 39.7 -- 19.8 22.0
01/30/2019 03:00 219.29 0.00 39.7 -- 18.8 22.0
01/30/2019 02:00 219.29 0.00 39.7 -- 17.9 22.0
01/30/2019 01:00 219.27 0.00 39.7 -- 16.8 22.0
01/30/2019 00:00 219.28 0.00 39.7 0.02 16.3 22.0
01/29/2019 23:00 219.27 0.00 39.7 -- 16.3 22.0
01/29/2019 22:00 219.26 0.00 39.7 -- 16.4 22.0
01/29/2019 21:00 219.26 0.00 39.7 -- 16.7 22.0
01/29/2019 20:00 219.26 0.00 39.7 -- 17.2 22.0
01/29/2019 19:00 219.26 0.00 39.7 -- 18.0 22.0
01/29/2019 18:00 219.26 0.00 39.7 -- 18.3 22.0
01/29/2019 17:00 219.26 0.00 39.7 -- 18.3 22.0
01/29/2019 16:00 219.27 0.00 39.7 -- 18.2 22.0
01/29/2019 15:00 219.27 0.00 39.7 -- 18.0 22.0
01/29/2019 14:00 219.27 0.00 39.7 -- 17.8 22.0
01/29/2019 13:00 219.27 0.00 39.7 -- 17.2 22.0
01/29/2019 12:00 219.27 0.00 39.7 -- 15.5 22.0
01/29/2019 11:00 219.28 0.00 39.7 -- 13.2 22.0
01/29/2019 10:00 219.28 0.00 39.7 -- 10.7 22.0
01/29/2019 09:00 219.28 0.00 39.7 -- 8.7 22.0
01/29/2019 08:00 219.29 0.00 39.7 -- 7.3 22.0
01/29/2019 07:00 219.28 0.00 39.7 -- 7.3 22.0
01/29/2019 06:00 219.29 0.00 39.7 -- 8.0 22.0
01/29/2019 05:00 219.29 0.00 39.7 -- 9.0 22.0
01/29/2019 04:00 219.29 0.00 39.7 -- 9.8 22.0
01/29/2019 03:00 219.29 0.00 39.8 -- 11.0 22.0
01/29/2019 02:00 219.29 0.00 39.8 -- 12.3 22.0
01/29/2019 01:00 219.29 0.00 39.8 -- 13.3 22.5
01/29/2019 00:00 219.31 0.00 39.8 0.00 14.8 22.8
01/28/2019 23:00 219.30 0.00 39.8 -- 16.5 22.8
01/28/2019 22:00 219.30 0.00 39.8 -- 17.9 22.5
01/28/2019 21:00 219.30 0.00 39.8 -- 15.9 23.0
01/28/2019 20:00 219.31 0.00 39.7 -- 17.3 23.0
01/28/2019 19:00 219.31 0.00 39.7 -- 18.7 23.0
01/28/2019 18:00 219.31 0.00 39.7 -- 20.6 23.0
01/28/2019 17:00 219.32 0.00 39.8 -- 22.9 23.0
01/28/2019 16:00 219.32 0.00 39.8 -- 24.3 23.0
01/28/2019 15:00 219.31 0.00 39.8 -- 25.7 23.0
01/28/2019 14:00 219.32 0.00 39.8 -- 26.2 23.0
01/28/2019 13:00 219.32 -- 39.8 -- 25.7 --
01/28/2019 12:00 219.32 -- 39.8 -- 25.8 --
01/28/2019 11:00 219.32 -- 39.8 -- 25.8 --
01/28/2019 10:00 219.32 -- 39.8 -- 25.9 --
01/28/2019 09:00 219.32 -- 39.8 -- 26.0 --
01/28/2019 08:00 219.32 -- 39.8 -- 26.0 --
01/28/2019 07:00 219.32 -- 39.8 -- 26.1 --
01/28/2019 06:00 219.32 -- 39.8 -- 26.2 --
01/28/2019 05:00 219.32 -- 39.8 -- 26.2 --
01/28/2019 04:00 219.32 -- 39.8 -- 26.3 --
01/28/2019 03:00 219.32 -- 39.8 -- 26.4 --
01/28/2019 02:00 219.32 -- 39.8 -- 26.4 --
01/28/2019 01:00 219.32 -- 39.8 -- 26.5 --
01/28/2019 00:00 219.32 -- 39.8 -- 26.6 --
01/27/2019 23:00 219.32 -- 39.8 -- 26.6 --
01/27/2019 22:00 219.32 -- 39.8 -- 26.7 --
01/27/2019 21:00 219.32 -- 39.8 -- 26.8 --
01/27/2019 20:00 219.32 -- 39.8 -- 26.8 --
01/27/2019 19:00 219.32 -- 39.8 -- 26.9 --
01/27/2019 18:00 219.32 -- 39.8 -- 27.0 --
01/27/2019 17:00 219.32 -- 39.8 -- 27.0 --
01/27/2019 16:00 219.32 -- 39.8 -- 27.1 --
01/27/2019 15:00 219.32 -- 39.8 -- 27.2 --
01/27/2019 14:00 219.32 -- 39.8 -- 27.2 --
01/27/2019 13:00 219.32 -- 39.8 -- 27.3 --
01/27/2019 12:00 219.32 -- 39.8 -- 27.4 --
01/27/2019 11:00 219.32 -- 39.8 -- 27.4 --
01/27/2019 10:00 219.32 -- 39.8 -- 27.5 --
01/27/2019 09:00 219.32 -- 39.8 -- 27.6 --
01/27/2019 08:00 219.32 -- 39.8 -- 27.6 --
01/27/2019 07:00 219.32 -- 39.8 -- 27.7 --
01/27/2019 06:00 219.32 -- 39.8 -- 27.7 --
01/27/2019 05:00 219.32 -- 39.8 -- 27.8 --
01/27/2019 04:00 219.32 -- 39.8 -- 27.9 --
01/27/2019 03:00 219.32 -- 39.8 -- 27.9 --
01/27/2019 02:00 219.32 -- 39.8 -- 28.0 --
01/27/2019 01:00 219.32 -- 39.8 -- 28.1 --
01/27/2019 00:00 219.32 -- 39.8 -- 28.1 --
01/26/2019 23:00 219.32 -- 39.8 -- 28.2 --
01/26/2019 22:00 219.32 -- 39.8 -- 28.3 --
01/26/2019 21:00 219.32 -- 39.8 -- 28.3 --
01/26/2019 20:00 219.32 -- 39.8 -- 28.4 --
01/26/2019 19:00 219.32 -- 39.8 -- 28.5 --
01/26/2019 18:00 219.32 -- 39.8 -- 28.5 --
01/26/2019 17:00 219.32 -- 39.8 -- 28.6 --
01/26/2019 16:00 219.32 -- 39.8 -- 28.7 --
01/26/2019 15:00 219.32 -- 39.8 -- 28.7 --
01/26/2019 14:00 219.32 -- 39.8 -- 28.8 --
01/26/2019 13:00 219.32 -- 39.8 -- 28.9 --
01/26/2019 12:00 219.32 -- 39.8 -- 28.9 --
01/26/2019 11:00 219.32 -- 39.8 -- 29.0 --
01/26/2019 10:00 219.32 -- 39.8 -- 29.1 --
01/26/2019 09:00 219.32 -- 39.8 -- 29.1 --
01/26/2019 08:00 219.32 -- 39.8 -- 29.2 --
01/26/2019 07:00 219.32 -- 39.8 -- 29.3 --
01/26/2019 06:00 219.32 -- 39.8 -- 29.3 --
01/26/2019 05:00 219.32 -- 39.8 -- 29.4 --
01/26/2019 04:00 219.32 -- 39.8 -- 29.5 --
01/26/2019 03:00 219.32 -- 39.8 -- 29.5 --
01/26/2019 02:00 219.32 -- 39.8 -- 29.6 --
01/26/2019 01:00 219.32 -- 39.8 -- 29.7 --
01/26/2019 00:00 219.32 -- 39.8 -- 29.7 --
01/25/2019 23:00 219.32 -- 39.8 -- 29.8 --
01/25/2019 22:00 219.32 0.00 39.8 -- 29.9 --
01/25/2019 21:00 219.32 0.00 39.8 -- 29.9 23.0
01/25/2019 20:00 219.32 0.00 39.8 -- 30.4 23.0
01/25/2019 19:00 219.33 0.00 39.8 -- 31.0 23.0
01/25/2019 18:00 219.33 0.00 39.8 -- 31.0 23.0
01/25/2019 17:00 219.31 0.00 39.8 -- 32.2 23.0
01/25/2019 16:00 219.31 0.00 39.8 -- 34.4 22.5
01/25/2019 15:00 219.29 0.00 39.8 -- 34.8 22.0
01/25/2019 14:00 219.28 0.00 39.8 -- 35.3 22.0
01/25/2019 13:00 219.28 0.00 39.8 -- 34.4 22.0
01/25/2019 12:00 219.26 0.00 39.9 -- 36.0 22.0
01/25/2019 11:00 219.26 0.00 39.9 -- 35.1 22.0
01/25/2019 10:00 219.25 0.00 39.9 -- 34.4 22.0
01/25/2019 09:00 219.25 0.00 39.9 -- 32.3 21.3
01/25/2019 08:00 219.24 0.00 39.9 -- 29.3 21.0
01/25/2019 07:00 219.24 0.00 39.9 -- 28.9 21.0
01/25/2019 06:00 219.22 0.00 39.9 -- 30.3 21.0
01/25/2019 05:00 219.20 0.00 39.9 -- 31.3 20.8
01/25/2019 04:00 219.19 0.00 39.9 -- 32.3 20.0
01/25/2019 03:00 219.18 0.00 39.9 -- 33.1 20.0
01/25/2019 02:00 219.19 0.00 39.9 -- 33.5 20.0
01/25/2019 01:00 219.15 0.00 39.9 -- 34.7 19.5
01/25/2019 00:00 219.09 0.00 39.9 -- 36.7 19.0
01/24/2019 23:00 219.08 0.00 39.9 -- 37.8 18.3
01/24/2019 22:00 219.06 0.00 39.9 -- 40.0 18.0
01/24/2019 21:00 219.05 0.00 39.9 -- 41.7 17.5
01/24/2019 20:00 219.03 0.01 39.9 -- 44.4 17.3
01/24/2019 19:00 218.96 0.06 39.9 -- 47.7 16.0
01/24/2019 18:00 218.93 0.15 39.9 -- 50.1 16.0
01/24/2019 17:00 218.90 0.09 39.9 -- 52.5 15.0
01/24/2019 16:00 218.85 0.32 39.9 -- 52.7 14.8
01/24/2019 15:00 218.82 0.15 39.9 -- 53.0 14.0
01/24/2019 14:00 218.80 0.14 39.9 -- 52.0 13.8
01/24/2019 13:00 218.78 0.10 39.9 -- 52.9 13.0
01/24/2019 12:00 218.77 0.05 39.9 -- 52.8 13.0
01/24/2019 11:00 218.76 0.09 39.9 -- 50.3 13.0
01/24/2019 10:00 218.75 0.12 39.9 -- 49.5 13.0
01/24/2019 09:00 218.75 0.10 39.9 -- 46.7 13.0
01/24/2019 08:00 218.75 0.08 39.9 -- 42.2 13.0
01/24/2019 07:00 218.76 0.05 39.9 -- 36.4 13.0
01/24/2019 06:00 218.75 0.06 39.8 -- 33.0 13.0
01/24/2019 05:00 218.74 0.06 39.8 -- 33.0 13.0
01/24/2019 04:00 218.74 0.06 39.9 -- 33.3 13.0
01/24/2019 03:00 218.74 0.04 39.9 -- 33.2 13.0
01/24/2019 02:00 218.74 0.05 39.9 -- 34.7 13.0
01/24/2019 01:00 218.74 0.03 39.9 -- 33.8 13.0
01/24/2019 00:00 218.73 0.02 39.8 1.81 35.7 13.0
01/23/2019 23:00 218.73 0.02 39.9 -- 36.1 13.0
01/23/2019 22:00 218.74 0.01 39.9 -- 37.8 13.0
01/23/2019 21:00 218.75 0.00 39.9 -- 38.2 13.0
01/23/2019 20:00 218.73 0.01 39.9 -- 37.5 13.0
01/23/2019 19:00 218.75 0.01 39.9 -- 37.2 13.0
01/23/2019 18:00 218.73 0.00 39.8 -- 36.9 13.0
01/23/2019 17:00 218.75 0.00 39.9 -- 37.5 13.0
01/23/2019 16:00 218.74 0.00 39.8 -- 37.4 13.0
01/23/2019 15:00 218.74 0.00 39.8 -- 39.4 13.0
01/23/2019 14:00 218.75 0.00 39.8 -- 36.7 13.0
01/23/2019 13:00 218.75 0.00 39.8 -- 33.4 13.0
01/23/2019 12:00 218.76 0.00 39.8 -- 30.1 13.0
01/23/2019 11:00 218.77 0.00 39.8 -- 26.6 13.0
01/23/2019 10:00 218.75 0.00 39.8 -- 24.6 13.0
01/23/2019 09:00 218.75 0.00 39.8 -- 20.8 13.0
01/23/2019 08:00 218.76 0.00 39.8 -- 16.1 13.0
01/23/2019 07:00 218.77 0.00 39.9 -- 13.9 13.0
01/23/2019 06:00 -- -- -- -- 12.4 13.0
01/23/2019 05:00 -- -- -- -- 10.3 13.0
01/23/2019 04:00 -- -- -- -- 9.3 13.0
01/23/2019 03:00 -- -- -- -- 9.8 13.0
01/23/2019 02:00 -- -- -- -- 10.3 13.0
01/23/2019 01:00 -- -- -- -- 11.7 13.0
01/23/2019 00:00 -- -- -- 0.07 14.2 13.0